     2              OBSERVATION DATA    GPS                 RINEX VERSION / TYPE
teqc 2000Feb29 20021016 17:28:56UTC                         PGM / RUN BY / DATE
                                                            COMMENT
L2: 1 -> 1; 5 -> 5; 60 -> 9                                 COMMENT
L2: 1 -> 1; 5 -> 5; 60 -> 9                                 COMMENT
L2: 1 -> 1; 5 -> 5; 60 -> 9                                 COMMENT
L2: 1 -> 1; 5 -> 5; 60 -> 9                                 COMMENT
L2: 1 -> 1; 5 -> 5; 60 -> 9                                 COMMENT
Original Marker Name: ALHA                                  COMMENT
Campaign Name: Yolo County Subsidence 2002                  COMMENT
4-Character Station Name: ALHA                              COMMENT
6-Character Antenna Code: TRMCMP                            COMMENT
Vertical Measurement Point: BPA                             COMMENT
Vertical Offset to Rinex Ref. Point: 0.0000                 COMMENT
Radial Measurement Point: RRP                               COMMENT
Radial Offset to Rinex Ref. Point: 0.0000                   COMMENT
Antenna Height from Field Measurement: 2.0000 m             COMMENT
Additional Antenna Identification Info.:                    COMMENT
Model 22020.00+GP                                           COMMENT
Original XYZ: -2624754.5774 -4248610.2765 3954111.4558      COMMENT
New XYZ position is based on association with SCEC monument COMMENT
E1F8X7J7+0011. Position of that monument is believed to be  COMMENT
valid to within 1 m horizontally; vertical accuracy         COMMENT
should be no worse than 3-times this value.                 COMMENT
                                                            COMMENT
Revised Rinex header created by UCSD GPS archive for        COMMENT
GSAC on 27-Jun-2003 (2003:178) 16:22:47 GMT                 COMMENT
For assistance contact dagnew@ucsd.edu                      COMMENT
or anderson@python.ucsd.edu                                 COMMENT
                                                            COMMENT
ALHAMBRA 1999                                               MARKER NAME
ALHA                                                        MARKER NUMBER
-Unknown- YOLO_COUNTY                                       OBSERVER / AGENCY
14631 TRIMBLE 4000 SSI NP 7.19; SP 3.04                     REC # / TYPE / VERS
50501 TR GEOD L1/L2 GP                                      ANT # / TYPE
 -2624756.0210 -4248610.2293  3954110.2624                  APPROX POSITION XYZ
        2.0000        0.0000        0.0000                  ANTENNA: DELTA H/E/N
     1     1     0                                          WAVELENGTH FACT L1/2
     7    C1    L1    L2    P1    P2    S1    S2            # / TYPES OF OBSERV
     0                                                      INTERVAL
  2002     8     2    21    11   30.000000                  TIME OF FIRST OBS
  2002     8     2    22    16   15.000000                  TIME OF LAST OBS
                                                            END OF HEADER
 02  8  2 21 11 30.0000000  0  5G 1G11G14G20G25
  23512192.7814    1530598.08756   1156830.07856                  23512200.0744
        15.2504         14.0004
  21545593.6094    9394630.80258   7320489.60657                  21545598.3444
        28.2504         26.5004
  23521996.1884   16283595.62156  12673605.41555                  23522002.4924
        14.2504         11.5004
  21921268.3284    1682535.39857   1314163.12356                  21921273.8244
        23.5004         22.7504
  20975188.9304    8265831.12258   6403227.69657                  20975193.8054
        31.2504         29.7504
 02  8  2 21 11 45.0000000  0  5G 1G11G14G20G25
  23515913.1094    1550149.84846   1172065.24746                  23515920.9064
        15.0004         14.5004
  21558986.4844    9465009.20848   7375329.90547                  21558991.1024
        28.7504         26.2504
  23540273.5554   16379641.96646  12748446.71845                  23540279.0864
        14.7504         11.2504
  21924937.1024    1701816.47847   1329187.35246                  21924942.4344
        23.7504         22.7504
  20987293.5084    8329441.14648   6452793.94947                  20987298.3244
        31.0004         29.7504
 02  8  2 21 12  0.0000000  0  5G 1G11G14G20G25
  23519647.8984    1569777.18046   1187359.34546                  23519656.0474
        15.5004         14.5004
  21572410.8054    9535555.51648   7430301.03447                  21572415.4454
        28.2504         26.2504
  23558558.7584   16475732.28746  12823322.27945                  23558565.3444
        13.0004         11.2504
  21928622.8594    1721181.30747   1344276.84046                  21928628.2504
        24.5004         23.0004
  20999428.6724    8393212.30648   6502485.76347                  20999433.5594
        30.5004         29.7504
 02  8  2 21 12 15.0000000  0  5G 1G11G14G20G25
  23523398.2194    1589487.09646   1202717.75446                  23523406.0164
        14.7504         14.0004
  21585868.5474    9606276.50448   7485408.28047                  21585873.1414
        28.2504         26.2504
  23576852.8284   16571873.49445  12898237.42745                  23576860.5554
        11.7504         11.5004
  21932324.8594    1740637.08947   1359437.21346                  21932329.9224
        24.7504         23.0004
  21011595.8984    8457151.54648   6552308.54647                  21011600.8674
        31.0004         29.7504
 02  8  2 21 12 30.0000000  0  5G 1G11G14G20G25
  23527165.2664    1609286.46046   1218145.88346                  23527172.7704
        14.0004         14.2504
  21599361.0394    9677178.95648   7540656.91647                  21599365.8914
        28.2504         26.2504
  23595159.5004   16668072.27346  12973197.46745                  23595166.3324
        13.2504         11.2504
  21936045.6414    1760191.05747   1374674.08246                  21936051.1254
        23.7504         22.7504
  21023796.4454    8521265.78048   6602267.69147                  21023801.2384
        31.0004         30.0004
 02  8  2 21 12 45.0000000  0  5G 1G11G14G20G25
  23530949.5084    1629170.41046   1233639.93846                  23530957.4344
        14.7504         14.0004
  21612886.5084    9748257.83947   7596043.04547                  21612891.4064
        27.2504         26.0004
  23613476.1484   16764323.65146  13048198.51046                  23613481.6914
        14.0004         12.0004
  21939784.5394    1779838.51647   1389983.80846                  21939789.8484
        24.5004         22.7504
  21036029.6024    8585549.94948   6652359.25147                  21036034.5004
        31.2504         30.0004
 02  8  2 21 13  0.0000000  0  5G 1G11G14G20G25
  23534748.8364    1649137.52646   1249198.77346                  23534756.4574
        14.2504         13.7504
  21626445.6174    9819511.62047   7651565.44747                  21626450.2934
        27.5004         26.0004
  23631801.2274   16860626.19446  13123239.38846                  23631807.1454
        12.7504         12.0004
  21943540.9924    1799578.26547   1405365.44646                  21943546.1134
        24.5004         23.0004
  21048294.3204    8650002.46548   6702581.98847                  21048299.2074
        31.2504         30.0004
 02  8  2 21 13 15.0000000  0  5G 1G11G14G20G25
  23538565.5784    1669191.03546   1264824.94646                  23538572.8714
        15.2504         14.2504
  21640038.4224    9890943.17147   7707226.38047                  21640043.3324
        27.2504         26.0004
  23650136.9844   16956982.93646  13198322.51245                  23650143.2304
        12.5004         11.5004
  21947315.5164    1819413.81247   1420821.72846                  21947320.7664
        24.2504         23.2504
  21060591.8364    8714626.28848   6752938.21147                  21060596.7114
        31.2504         30.0004
 02  8  2 21 13 30.0000000  0  5G 1G11G14G20G25
  23542398.9774    1689337.73746   1280523.71146                  23542406.1054
        14.7504         14.0004
  21653666.8914    9962559.17647   7763031.03347                  21653671.9774
        27.5004         25.7504
  23668485.2034   17053400.58746  13273453.07846                  23668491.2034
        13.7504         12.2504
  21951109.3754    1839352.12347   1436358.08846                  21951114.6374
        24.2504         23.0004
  21072923.5394    8779428.09448   6803433.11947                  21072928.4144
        31.2504         29.7504
 02  8  2 21 13 45.0000000  0  5G 1G11G14G20G25
  23546248.1414    1709567.17446   1296286.96446                  23546255.9614
        14.7504         13.7504
  21667327.7974   10034348.99647   7818971.12847                  21667332.6134
        27.5004         25.7504
  23686842.7664   17149868.55146  13348622.87946                  23686847.6764
        15.0004         12.2504
  21954921.4774    1859382.86547   1451966.46846                  21954926.7504
        24.5004         23.2504
  21085286.3914    8844397.29148   6854058.46947                  21085291.3364
        31.2504         29.7504
 02  8  2 21 14  0.0000000  0  5G 1G11G14G20G25
  23550113.5864    1729880.89846   1312115.89746                  23550121.7704
        14.0004         14.2504
  21681022.6334   10106314.05648   7875047.78546                  21681027.3094
        28.0004         25.5004
  23705209.3754   17246388.38246  13423833.10446                  23705214.6604
        14.2504         12.7504
  21958751.1334    1879507.96347   1467648.37746                  21958756.5234
        25.0004         23.5004
  21097681.7344    8909535.34748   6904815.39247                  21097686.6684
        31.0004         29.7504
 02  8  2 21 14 15.0010000  0  5G 1G11G14G20G25
  23553995.7394    1750282.26246   1328013.11546                  23554003.1034
        14.2504         14.0004
  21694751.7004   10178460.99348   7931266.15147                  21694756.4934
        28.0004         25.7504
  23723587.5444   17342968.34846  13499090.18046                  23723593.5564
        13.5004         12.0004
  21962599.3024    1899730.93447   1483406.55046                  21962604.1654
        24.7504         23.5004
  21110110.5994    8974848.51348   6955708.76947                  21110115.4274
        31.2504         30.0004
 02  8  2 21 14 30.0010000  0  5G 1G11G14G20G25
  23557894.9274    1770770.29746   1343977.87646                  23557902.7944
        14.7504         14.0004
  21708514.0054   10250781.64548   7987619.88447                  21708518.6464
        28.0004         25.7504
  23741975.5914   17439597.18446  13574385.34746                  23741981.9894
        14.0004         12.0004
  21966465.9664    1920050.97547   1499240.35646                  21966470.9814
        25.2504         23.5004
  21122571.3644    9040329.61248   7006732.99847                  21122576.0994
        31.7504         30.0004
 02  8  2 21 14 45.0010000  0  5G 1G11G14G20G25
  23561810.4744    1791346.34446   1360011.20346                  23561818.5174
        15.0004         14.7504
  21722309.9894   10323280.64947   8044112.59447                  21722314.8174
        27.5004         25.7504
  23760374.2714   17536281.16546  13649723.47146                  23760380.5284
        14.5004         12.5004
  21970351.9114    1940469.66247   1515151.03146                  21970357.0674
        25.5004         23.7504
  21135064.5994    9105982.82548   7057891.34447                  21135069.2744
        31.2504         30.0004
 02  8  2 21 15  0.0010000  0  5G 1G11G14G20G25
  23565742.8964    1812010.58746   1376113.26946                  23565750.9974
        15.2504         14.7504
  21736139.7474   10395957.99547   8100744.26646                  21736144.9384
        26.7504         25.5004
  23778784.0284   17633020.34546  13725104.62146                  23778790.4624
        14.7504         12.5004
  21974256.0054    1960987.38047   1531138.88146                  21974261.2084
        24.5004         23.5004
  21147590.8884    9171808.16148   7109183.81447                  21147595.6814
        31.2504         29.7504
 02  8  2 21 15 15.0010000  0  5G 1G11G14G20G25
  23569691.6534    1832760.54346   1392282.10446                  23569698.7124
        16.2504         15.0004
  21750003.4034   10468811.12747   8157512.91946                  21750008.4424
        27.5004         25.5004
  23797201.9894   17729812.25946  13800526.82346                  23797208.3294
        13.7504         12.2504
  21978178.3964    1981601.86747   1547202.12246                  21978183.8804
        24.0004         23.5004
  21160148.9814    9237802.96848   7160608.33547                  21160153.8104
        30.7504         30.0004
 02  8  2 21 15 30.0010000  0  5G 1G11G14G20G25
  23573655.9894    1853597.27346   1408518.58546                  23573663.5524
        15.2504         15.0004
  21763900.7314   10541840.89847   8214419.21147                  21763905.7354
        27.7504         25.7504
  23815631.7084   17826657.89346  13875990.89346                  23815638.0714
        14.2504         12.0004
  21982119.9814    2002314.55547   1563341.90146                  21982125.5244
        24.2504         23.2504
  21172740.0754    9303968.16948   7212165.63547                  21172744.9504
        31.5004         30.0004
 02  8  2 21 15 45.0010000  0  5G 1G11G14G20G25
  23577637.2164    1874518.88546   1424821.17246                  23577645.2944
        15.2504         14.7504
  21777831.2784   10615045.23548   8271461.52547                  21777835.9894
        28.0004         26.0004
  23834070.8254   17923555.14646  13951495.21146                  23834076.6384
        15.0004         12.7504
  21986080.2314    2023123.71147   1579556.83946                  21986086.1144
        24.7504         23.2504
  21185362.6854    9370301.76548   7263854.15147                  21185367.4544
        30.7504         29.7504
 02  8  2 21 16  0.0010000  0  5G 1G11G14G20G25
  23581634.5134    1895523.89046   1441188.78146                  23581641.9354
        15.2504         14.5004
  21791794.4584   10688422.44848   8328638.55547                  21791799.1574
        28.5004         26.2504
  23852519.0284   18020502.64446  14027038.69946                  23852525.5324
        14.5004         13.0004
  21990057.6774    2044028.14247   1595846.01946                  21990063.1384
        24.2504         23.5004
  21198017.3884    9436802.08148   7315672.57647                  21198022.2044
        31.2504         30.2504
 02  8  2 21 16 15.0010000  0  5G 1G11G14G20G25
  23585648.1534    1916613.70746   1457622.44746                  23585655.3414
        16.2504         14.5004
  21805790.5214   10761973.76448   8385951.24647                  21805795.2674
        28.0004         26.0004
  23870977.4114   18117501.54046  14102622.20646                  23870983.3064
        14.5004         12.2504
  21994054.2394    2065029.38347   1612210.62846                  21994059.8644
        24.5004         23.5004
  21210704.0604    9503470.44648   7367621.95047                  21210708.8174
        31.7504         30.2504
 02  8  2 21 16 30.0010000  0  5G 1G11G14G20G25
  23589677.0214    1937786.45046   1474120.75546                  23589684.3724
        16.0004         14.5004
  21819819.8884   10835697.06348   8443397.94847                  21819824.5054
        28.5004         26.2504
  23889445.0134   18214549.80546  14178244.18446                  23889451.2714
        14.2504         12.0004
  21998068.8644    2086125.75947   1628649.38346                  21998074.3024
        24.7504         23.7504
  21223421.9584    9570304.86048   7419700.71747                  21223426.8214
        31.2504         30.0004
 02  8  2 21 16 45.0010000  0  5G 1G11G14G20G25
  23593721.4744    1959043.23946   1490684.53046                  23593728.4384
        15.2504         15.0004
  21833881.7944   10909593.24147   8500979.36347                  21833886.3414
        27.7504         26.0004
  23907921.9664   18311648.50846  14253905.45845                  23907928.2004
        14.7504         11.7504
  22002101.7944    2107318.67647   1645163.35646                  22002106.9384
        25.0004         23.7504
  21236172.3024    9637306.22048   7471909.56547                  21236177.0604
        32.0004         30.0004
 02  8  2 21 17  0.0010000  0  5G 1G11G14G20G25
  23597782.3884    1980384.84746   1507314.39146                  23597790.1264
        15.0004         14.2504
  21847976.7554   10983662.92348   8558695.97447                  21847981.3964
        28.0004         25.7504
  23926409.2554   18408798.45446  14329606.68245                  23926415.0214
        14.0004         11.2504
  22006153.0054    2128609.20947   1661753.39446                  22006157.8564
        24.5004         23.7504
  21248954.0674    9704475.08548   7524248.94247                  21248958.5564
        32.0004         30.0004
 02  8  2 21 17 15.0010000  0  5G 1G11G14G20G25
  23601859.7944    2001810.58146   1524009.85646                  23601867.5324
        14.7504         14.7504
  21862104.7244   11057905.26848   8616547.12447                  21862109.4704
        28.2504         25.7504
  23944906.0914   18505998.74846  14405347.12845                  23944911.8104
        13.0004         10.7504
  22010222.7634    2149996.74247   1678419.01846                  22010228.2004
        24.2504         23.7504
  21261767.5444    9771810.65348   7576718.21747                  21261772.2784
        31.5004         30.0004
 02  8  2 21 17 30.0010000  0  5G 1G11G14G20G25
  23605952.6144    2023316.76546
        15.2504
  21876264.6694   11132316.39748   8674529.79747                  21876269.4854
        28.5004         26.0004
  23963411.1464   18603245.49946  14481123.77345                  23963417.7434
        12.5004         10.0004
  22014310.6854    2171477.91147   1695157.60546                  22014315.9814
        24.2504         23.5004
  21274611.9894    9839309.03448   7629314.36047                  21274616.8064
        31.2504         30.0004
 02  8  2 21 17 45.0010000  0  5G 1G11G14G20G25
  23610060.8804    2044905.71346
        15.7504
  21890457.1694   11206898.48448   8732645.69147                  21890462.0564
        28.0004         26.0004
  23981925.7084   18700540.98346  14556938.40845                  23981932.3174
        13.0004         11.0004
  22018416.7244    2193055.16947   1711971.07346                  22018422.1614
        24.7504         24.7504
  21287487.9424    9906972.47548   7682039.12147                  21287492.8764
        31.5004         30.0004
 02  8  2 21 18  0.0010000  0  5G 1G11G14G20G25
  23614183.9974    2066574.93946
        15.5004
  21904681.6774   11281648.78048   8790892.64747                  21904686.3534
        28.0004         26.0004
  24000449.6614   18797882.63846  14632788.99245                  24000456.3884
        13.0004         11.0004
  22022540.4974    2214726.28347   1728857.64746                  22022546.0754
        24.5004         24.2504
  21300394.6144    9974798.37248   7734890.46847                  21300399.3724
        31.0004         29.7504
 02  8  2 21 18 15.0010000  0  5G 1G11G14G20G25
  23618323.5284    2088329.63746
        15.7504
  21918939.5604   11356572.21548   8849274.51947                  21918944.2244
        28.7504         25.7504
  24018982.5054   18895275.61546  14708679.58645                  24018989.5524
        12.5004         11.0004
  22026683.1064    2236496.76547   1745821.69346                  22026688.7674
        24.2504         23.7504
  21313333.4664   10042791.61148   7787872.20947                  21313338.2824
        31.7504         30.0004
 02  8  2 21 18 30.0010000  0  5G 1G11G14G20G25
  23622478.5524    2110162.12246
        16.0004
  21933228.2314   11431660.94248   8907785.18447                  21933232.8964
        28.2504         25.7504
  24037524.1614   18992712.07245  14784604.05645                  24037531.0324
        11.7504         10.7504
  22030843.4354    2258359.13147   1762857.31146                  22030849.3174
        24.5004         24.0004
  21326302.3964   10110944.36848   7840978.25447                  21326307.0954
        31.7504         30.0004
 02  8  2 21 18 45.0010000  0  5G 1G11G14G20G25
  23626648.1694    2132075.86546
        15.5004
  21947549.2244   11506918.34448   8966427.29547                  21947553.7594
        28.5004         26.0004
  24056074.8494   19090195.44846  14860565.05845                  24056080.8494
        12.5004         11.0004
  22035021.9504    2280317.10547   1779967.43046                  22035027.4114
        24.7504         24.2504
  21339302.4114   10179260.04748   7894211.25547                  21339307.1344
        31.2504         29.7504
 02  8  2 21 19  0.0010000  0  5G 1G11G14G20G25
  23630835.0134    2154072.33646
        16.2504
  21961902.9504   11582345.63948   9025201.78747                  21961907.3804
        28.7504         25.7504
  24074635.0214   19187727.12846  14936563.71745                  24074642.2314
        12.7504         10.7504
  22039219.1854    2302372.45047   1797153.42746                  22039224.5634
        24.7504         24.2504
  21352333.7714   10247739.89048   7947572.17047                  21352338.3644
        31.7504         30.0004
 02  8  2 21 19 15.0010000  0  5G 1G11G14G20G25
  23635035.2084    2176147.40146     13765.08556                  23635042.0794
        16.2504         14.2504
  21976287.3804   11657938.49248   9084105.27747                  21976291.9624
        28.2504         25.7504
  24093202.0914   19285302.81546  15012596.69345                  24093207.5054
        12.2504         10.7504
  22043433.8494    2324521.17747   1814412.18446                  22043439.3924
        24.7504         24.0004
  21365395.4664   10316379.57448   8001057.64047                  21365400.0484
        31.5004         30.0004
 02  8  2 21 19 30.0010000  0  5G 1G11G14G20G25
  23639251.2394    2198303.82446     31029.88946                  23639258.4274
        15.2504         15.0004
  21990704.5834   11733699.39448   9143139.71946                  21990709.2714
        28.2504         25.5004
  24111778.9504   19382925.26745  15088666.08745                  24111785.1614
        11.2504         10.2504
  22047666.8804    2346766.19647   1831745.98346                  22047672.5994
        24.5004         24.2504
  21378488.1694   10385181.85048   8054669.80147                  21378492.8804
        31.7504         29.7504
 02  8  2 21 19 45.0010000  0  5G 1G11G14G20G25
  23643482.4584    2220543.57846     48359.59046                  23643490.0794
        15.0004         15.5004
  22005153.6224   11809630.15648   9202306.52146                  22005158.2514
        28.2504         25.5004
  24130365.9194   19480596.29945  15164773.32545                  24130372.5054
        11.7504         10.0004
  22051918.5214    2369109.75147   1849156.55646                  22051924.3924
        24.5004         24.0004
  21391612.2244   10454148.46248   8108410.02147                  21391616.9704
        31.7504         30.0004
 02  8  2 21 20  0.0010000  0  5G 1G11G14G20G25
  23647731.1064    2242867.81446     65755.14046                  23647739.8764
        15.2504         14.7504
  22019634.8644   11885731.75647   9261606.44346                  22019639.7394
        27.7504         25.5004
  24148961.8024   19578317.06546  15240919.31945                  24148968.1774
        12.5004         10.5004
  22056189.6534    2391553.34347   1866645.07846                  22056195.3374
        24.7504         24.0004
  21404767.3804   10523280.46048   8162279.11047                  21404772.2084
        31.5004         30.0004
 02  8  2 21 20 15.0010000  0  5G 1G11G14G20G25
  23651994.2244    2265273.23746     83213.96846                  23652001.9504
        14.7504         14.7504
  22034148.3494   11962000.67647   9321036.74346                  22034153.3174
        27.2504         25.2504
  24167566.5524   19676084.07346  15317101.36845                  24167573.1734
        12.5004         11.5004
  22060478.6774    2414093.86947   1884209.13646                  22060484.3844
        24.5004         24.0004
  21417953.7474   10592574.23848   8216274.26047                  21417958.6344
        31.7504         30.2504
 02  8  2 21 20 30.0010000  0  5G 1G11G14G20G25
  23656271.8334    2287754.85846    100732.16846                  23656279.5484
        14.5004         14.5004
  22048692.9894   12038431.87348   9380593.49146                  22048697.7124
        28.0004         25.5004
  24186178.3334   19773892.34946  15393315.57245                  24186185.4034
        12.2504         11.0004
  22064785.6924    2436726.62347   1901845.06846                  22064791.4584
        25.0004         24.2504
  21431169.4114   10662024.66748   8270391.47647                  21431174.4274
        31.0004         30.0004
 02  8  2 21 20 45.0010000  0  5G 1G11G14G20G25
  23660565.7474    2310317.49246    118313.47646                  23660573.3804
        14.7504         14.7504
  22063269.6614   12115029.74348   9440280.11546                  22063274.3494
        29.0004         25.5004
  24204799.0754   19871746.62446  15469565.57045                  24204804.6424
        12.7504         11.2504
  22069110.8884    2459456.60147   1919556.74546                  22069116.3604
        24.7504         24.2504
  21444416.4274   10731636.51748   8324634.47547                  21444421.6304
        31.2504         29.7504
 02  8  2 21 21  0.0010000  0  5G 1G11G14G20G25
  23664875.1464    2332963.02946    135959.39646                  23664882.6964
        15.0004         15.2504
  22077877.6224   12191796.17648   9500098.09046                  22077882.0874
        28.5004         25.5004
  24223430.1694   19969648.66346  15545852.81445                  24223435.9234
        13.5004         11.2504
  22073455.4584    2482285.99047   1937345.88746                  22073460.8254
        25.2504         24.2504
  21457694.0214   10801411.37648   8379004.49347                  21457698.9424
        31.2504         30.0004
 02  8  2 21 21 15.0020000  0  5G 1G11G14G20G25
  23669201.1274    2355693.40246    153671.43246                  23669208.5614
        15.7504         14.7504
  22092518.4794   12268736.24848   9560051.36846                  22092523.1664
        28.0004         25.5004
  24242070.8544   20067605.31446  15622182.64146                  24242078.0294
        14.2504         12.0004
  22077819.3934    2505216.93047   1955214.16846                  22077824.7714
        25.7504         24.5004
  21471003.3074   10871354.16648   8433505.36647                  21471008.3574
        30.5004         29.7504
 02  8  2 21 21 30.0020000  0  5G 1G11G14G20G25
  23673542.2524    2378507.29846    171448.52246                  23673549.1934
        15.7504         14.7504
  22107191.0494   12345841.34047   9620133.23146                  22107195.7014
        27.7504         25.5004
  24260718.6274   20165605.10846  15698546.07945                  24260725.6624
        12.7504         11.0004
  22082201.9324    2528248.27347   1973160.68446                  22082207.2754
        25.2504         24.5004
  21484343.6504   10941457.17248   8488131.08747                  21484348.7604
        30.7504         29.5004
 02  8  2 21 21 45.0020000  0  5G 1G11G14G20G25
  23677898.8544    2401404.20646    189290.32346                  23677905.5804
        15.0004         14.7504
  22121895.8384   12423114.31648   9680345.91146                  22121900.4794
        28.2504         25.5004
  24279376.2754   20263652.46746  15774946.57545                  24279383.2644
        13.0004         11.5004
  22086603.7684    2551379.74847   1991185.21546                  22086609.1234
        25.5004         24.5004
  21497714.7604   11011722.80448   8542883.52547                  21497719.8934
        30.5004         29.5004
 02  8  2 21 22  0.0020000  0  5G 1G11G14G20G25
  23682272.8544    2424386.67646    207198.78146                  23682280.2754
        16.0004         15.0004
  22136633.0254   12500557.50848   9740691.22846                  22136637.5614
        28.2504         25.5004
  24298043.9864   20361749.99446  15851386.14945                  24298050.6894
        13.0004         11.5004
  22091025.2754    2574614.20347   2009290.00046                  22091030.5144
        25.7504         25.0004
  21511117.2834   11082153.41648   8597764.52047                  21511122.2054
        30.5004         29.7504
 02  8  2 21 22 15.0020000  0  5G 1G11G14G20G25
  23686661.1744    2447449.22046    225169.63346                  23686668.8184
        15.5004         15.0004
  22151401.0964   12578165.34548   9801164.83546                  22151405.8304
        28.0004         25.5004
  24316720.4474   20459891.94746  15927860.33945                  24316727.0924
        13.2504         11.2504
  22095465.1824    2597946.38747   2027470.93346                  22095470.5964
        26.0004         24.5004
  21524550.0884   11152743.37148   8652769.67947                  21524554.8464
        30.7504         29.7504
 02  8  2 21 22 30.0020000  0  5G 1G11G14G20G25
  23691065.3934    2470593.32846    243204.04746                  23691073.1314
        15.5004         15.2504
  22166201.0964   12655938.99948   9861767.64946                  22166205.6784
        28.0004         25.2504
  24335404.9634   20558079.81946  16004370.33445                  24335410.8934
        13.2504         11.2504
  22099923.8694    2621378.08347   2045729.41646                  22099929.2714
        25.7504         24.7504
  21538013.6194   11223494.04148   8707900.07047                  21538018.5644
        30.7504         29.7504
 02  8  2 21 22 45.0020000  0  5G 1G11G14G20G25
  23695485.8614    2493820.77146    261303.38746                  23695493.3184
        15.7504         14.7504
  22181032.5254   12733880.00547   9922500.87346                  22181037.2714
        27.7504         25.2504
  24354098.0724   20656315.35445  16080917.43045                  24354104.7294
        11.7504         11.2504
  22104401.9944    2644911.27847   2064066.97846                  22104407.0574
        25.7504         25.0004
  21551507.8464   11294406.95448   8763156.88547                  21551512.7324
        31.2504         29.5004
 02  8  2 21 23  0.0020000  0  5G 1G11G14G20G25
  23699921.1974    2517129.19846    279465.83346                  23699928.3264
        16.0004         15.0004
  22195896.0184   12811985.76948   9983362.48046                  22195900.6934
        28.7504         25.5004
  24372800.6194   20754596.07746  16157499.77245                  24372806.4204
        12.5004         11.2504
  22108898.8614    2668543.80047   2082481.93346                  22108903.8074
        25.5004         25.0004
  21565032.4794   11365479.59948   8818538.16747                  21565037.2834
        31.2504         29.7504
 02  8  2 21 23 15.0020000  0  5G 1G11G14G20G25
  23704371.5104    2540520.14646    297692.61346                  23704379.0494
        15.2504         15.0004
  22210790.3074   12890257.68748  10044353.55446                  22210795.0184
        28.2504         25.5004
  24391511.3694   20852923.32445  16234118.35345                  24391518.2294
        11.5004         11.5004
  22113415.5494    2692277.45047   2100975.69546                  22113420.5294
        25.7504         25.0004
  21578587.7834   11436713.31848   8874044.95647                  21578592.7054
        30.5004         29.7504
 02  8  2 21 23 30.0020000  0  5G 1G11G14G20G25
  23708838.6664    2563991.06346    315981.65946                  23708846.3934
        16.0004         15.2504
  22225716.3614   12968693.00148  10105471.94846                  22225721.0614
        28.5004         25.2504
  24410231.4164   20951294.63046  16310771.26145                  24410238.2254
        12.5004         11.5004
  22117950.6584    2716109.89247   2119546.43946                  22117955.7214
        26.0004         25.2504
  21592173.4324   11508105.46148   8929675.19947                  21592178.4004
        31.5004         30.0004
 02  8  2 21 23 45.0020000  0  5G 1G11G14G20G25
  23713319.5884    2587539.71646    334331.31146                  23713327.4084
        15.7504         14.7504
  22240672.3384   13047289.33248  10166715.81646                  22240677.0144
        28.2504         25.5004
  24428958.6354   21049707.65645  16387456.66245                  24428965.3384
        11.7504         11.0004
  22122504.3384    2740039.15847   2138192.63046                  22122509.4594
        26.2504         25.2504
  21605788.6354   11579653.60248   8985426.99547                  21605793.4284
        31.2504         29.7504
 02  8  2 21 24  0.0020000  0  5G 1G11G14G20G25
  23717815.2834    2611167.98046    352742.98046                  23717823.1864
        14.5004         15.0004
  22255660.4004   13126048.30048  10228086.40846                  22255665.0644
        29.2504         25.5004
  24447694.7444   21148164.17745  16464175.97645                  24447701.7914
        11.5004         10.7504
  22127076.4004    2764067.38047   2156915.93146                  22127081.6864
        25.7504         25.0004
  21619433.7684   11651359.42548   9041301.66447                  21619438.6074
        30.7504         29.7504
 02  8  2 21 24 15.0020000  0  5G 1G11G14G20G25
  23722326.7214    2634876.17546    371216.94046                  23722334.2014
        14.7504         15.0004
  22270678.5804   13204969.87148  10289583.70846                  22270683.3854
        28.5004         25.2504
  24466437.5334   21246664.40945  16540929.35045                  24466444.8034
         9.5004          9.7504
  22131668.1504    2788195.18247   2175716.82346                  22131673.3184
        26.2504         25.2504
  21633108.6354   11723223.15048   9097299.37047                  21633113.6504
        30.0004         29.2504
 02  8  2 21 24 30.0020000  0  5G 1G11G14G20G25
  23726854.2134    2658664.42446    389753.28446                  23726861.7644
        15.7504         15.0004
  22285727.4794   13284053.97348  10351207.65346                  22285732.1784
        28.2504         25.5004
  24485190.4944   21345208.41845  16617716.82445                  24485197.6704
         9.5004          9.7504
  22136278.4084    2812422.82447   2194595.51746                  22136283.5184
        26.5004         25.5004
  21646813.9554   11795244.63448   9153420.00547                  21646819.0294
        30.5004         29.5004
 02  8  2 21 24 45.0020000  0  5G 1G11G14G20G25
  23731395.0024    2682531.14546    408350.76346                  23731402.4474
        15.0004         15.0004
  22300807.2054   13363298.74848  10412956.80046                  22300811.9514
        28.2504         25.2504
  24503950.7294   21443794.55545  16694537.12745                  24503958.2444
         9.2504          9.5004
  22140907.4084    2836748.94647   2213550.94546                  22140912.3074
        26.2504         25.5004
  21660548.8384   11867422.06248   9209662.15947                  21660553.6194
        30.5004         29.5004
 02  8  2 21 25  0.0020000  0  5G 1G11G14G20G25
  23735951.4164    2706476.40746    427009.45246                  23735958.7564
        15.2504         15.0004
  22315917.3224   13442704.15447  10474831.10246                  22315922.2324
        27.7504         25.0004
  24522719.1894   21542422.79145  16771390.25245                  24522726.1894
         9.0004          9.2504
  22145555.5574    2861173.97847   2232583.45046                  22145560.7604
        26.2504         25.2504
  21674313.6744   11939755.37548   9266025.77547                  21674318.5964
        30.5004         30.0004
 02  8  2 21 25 15.0020000  0  5G 1G11G14G20G25
  23740523.8694    2730500.50346    445729.57446                  23740530.2094
        16.0004         15.0004
  22331058.6274   13522270.20348  10536830.59446                  22331063.3964
        28.0004         25.2504
  24541495.0414   21641093.30245  16848276.29445                  24541502.2524
         9.2504          9.5004
  22150222.4394    2885698.36547   2251693.36946                  22150227.6434
        26.2504         25.5004
  21688107.8774   12012244.61648   9322510.89447                  21688112.8574
        30.7504         30.0004
 02  8  2 21 25 30.0020000  0  5G 1G11G14G20G25
  23745109.6434    2754602.52846    464510.40546                  23745117.0184
        15.5004         15.0004
  22346230.0414   13601995.87548  10598954.46446                  22346234.8114
        28.0004         25.0004
  24560279.6044   21739805.18245  16925194.56245                  24560285.5924
        10.0004          9.7504
  22154907.7834    2910321.59447   2270880.31546                  22154913.4324
        26.0004         25.5004
  21701931.6354   12084888.86748   9379116.80247                  21701936.7094
        31.0004         30.0004
 02  8  2 21 25 45.0020000  0  5G 1G11G14G20G25
  23749711.8384    2778783.58746    483352.84646                  23749719.5294
        15.7504         14.7504
  22361431.6194   13681882.05348  10661203.40146                  22361436.5414
        28.0004         25.0004
  24579072.3854   21838559.47645  17002145.92845                  24579079.0294
         9.5004          9.2504
  22159612.3934    2935044.91747   2290145.25147                  22159617.5614
        26.0004         25.7504
  21715784.9634   12157688.96948   9435844.15647                  21715789.9674
        30.5004         29.7504
 02  8  2 21 26  0.0020000  0  5G 1G11G14G20G25
  23754327.6664    2803042.84746    502256.20146                  23754335.1934
        15.2504         15.2504
  22376663.7524   13761927.61347  10723576.53646                  22376668.6864
        27.2504         25.0004
  24597872.5724   21937355.23745  17079129.56145                  24597880.1464
        10.0004          9.5004
  22164335.9084    2959867.70447   2309487.69246                  22164341.1824
        25.5004         25.5004
  21729667.6974   12230643.90748   9492692.15847                  21729672.7834
        30.5004         29.7504
 02  8  2 21 26 15.0020000  0  5G 1G11G14G20G25
  23758959.5494    2827379.70246    521220.03446                  23758966.4904
        16.2504         15.0004
  22391926.2604   13842131.69547  10786073.18946                  22391931.1004
        27.7504         24.7504
  24616681.0024   22036191.76445  17156145.01845                  24616687.2484
        10.7504          9.5004
  22169078.7834    2984789.61147   2328907.37146                  22169084.0684
        26.2504         25.5004
  21743579.9554   12303752.96448   9549660.25447                  21743585.2054
        29.7504         29.5004
 02  8  2 21 26 30.0020000  0  5G 1G11G14G20G25
  23763605.1744    2851794.20146    540244.36646                  23763612.8544
        16.0004         15.5004
  22407218.8544   13922494.05747  10848693.18146                  22407223.8224
        27.7504         24.7504
  24635496.0964   22135068.99245  17233192.13645                  24635504.0104
        10.5004          9.5004
  22173840.1114    3009810.96247   2348404.54147                  22173845.5144
        26.5004         25.7504
  21757521.3854   12377015.88948   9606748.24247                  21757526.5764
        30.0004         29.5004
 02  8  2 21 26 45.0020000  0  5G 1G11G14G20G25
  23768265.2994    2876286.47146    559329.28646                  23768272.7444
        15.5004         15.5004
  22422541.1894   14003014.66647  10911436.48446                  22422545.9594
        27.2504         24.7504
  24654319.4394   22233987.03945  17310271.10945                  24654327.0614
        10.0004          9.2504
  22178620.4084    3034932.19147   2367979.53047                  22178625.8694
        26.2504         25.7504
  21771492.0574   12450432.69748   9663956.14147                  21771497.1664
        29.7504         29.5004
 02  8  2 21 27  0.0020000  0  5G 1G11G14G20G25
  23772940.7604    2900853.82446    578472.71946                  23772947.8074
        16.0004         15.7504
  22437893.3854   14083690.62947  10974300.83446                  22437898.0844
        27.7504         25.0004
  24673150.7214   22332943.16545  17387379.68845                  24673157.5184
        11.7504         10.0004
  22183419.2914    3060150.78847   2387630.39747                  22183424.6464
        26.0004         25.7504
  21785491.4864   12524000.46648   9721281.66947                  21785496.7834
        29.7504         29.2504
 02  8  2 21 27 15.0020000  0  5G 1G11G14G20G25
  23777630.1664    2925497.17446    597675.37646                  23777637.1194
        16.0004         15.2504
  22453275.4714   14164522.59947  11037286.75946                  22453280.2524
        27.7504         24.7504
  24691988.9864   22431938.22345  17464518.65845                  24691994.5764
        11.2504          9.2504
  22188236.9164    3085467.86247   2407357.99447                  22188242.2714
        26.0004         26.0004
  21799519.8694   12597719.89148   9778725.37747                  21799525.0724
        29.7504         29.5004
 02  8  2 21 27 30.0020000  0  5G 1G11G14G20G25
  23782333.5414    2950215.37346    616936.36746                  23782341.1864
        15.5004         15.0004
  22468686.8224   14245509.20548  11100393.17046                  22468691.5104
        28.2504         24.7504
  24710833.8774   22530970.92045  17541686.92245                  24710841.2404
        11.0004          9.2504
  22193073.2364    3110882.57047   2427161.67147                  22193078.4864
        26.5004         25.7504
  21813577.0804   12671589.67348   9836286.24247                  21813582.2364
        30.2504         29.2504
 02  8  2 21 27 45.0020000  0  5G 1G11G14G20G25
  23787051.3464    2975007.28546    636254.77246                  23787058.9904
        15.2504         15.0004
  22484127.2754   14326649.06848  11163619.00346                  22484131.9044
        28.0004         25.0004
  24729686.5024   22630040.14246  17618883.68545                  24729692.9714
        12.2504         10.2504
  22197927.9244    3136393.99847   2447040.71947                  22197933.2914
        26.5004         25.7504
  21827662.4554   12745608.45248   9893963.20747                  21827667.5414
        30.5004         29.5004
 02  8  2 21 28  0.0030000  0  5G 1G11G14G20G25
  23791784.0854    2999879.89446    655636.08846                  23791791.9174
        15.2504         15.2504
  22499599.0304   14407952.70648  11226972.45646                  22499603.6834
        28.2504         24.7504
  24748547.8274   22729157.74745  17696118.12745                  24748554.1084
        11.2504         10.0004
  22202802.3584    3162009.51247   2467000.87247                  22202807.6204
        26.2504         26.0004
  21841777.9834   12819786.39248   9951764.20447                  21841783.0934
        30.2504         29.5004
 02  8  2 21 28 15.0030000  0  5G 1G11G14G20G25
  23796531.9834    3024826.03046    675074.67546                  23796539.6874
        16.0004         15.2504
  22515098.4134   14489405.18147  11290441.88446                  22515103.2884
        27.5004         24.5004
  24767415.1874   22828306.64645  17773376.93945                  24767423.2414
        11.2504         10.2504
  22207695.1164    3187722.01347   2487036.59847                  22207700.4374
        26.0004         26.0004
  21855920.8974   12894109.52248  10009678.32447                  21855926.0194
        30.2504         29.5004
 02  8  2 21 28 30.0030000  0  5G 1G11G14G20G25
  23801293.2414    3049848.12046    694572.45746                  23801300.8394
        16.2504         15.5004
  22530627.9994   14571012.53247  11354031.99046                  22530632.8394
        27.7504         24.5004
  24786290.4604   22927494.13246  17850665.82745                  24786296.7414
        12.7504         10.7504
  22212606.9834    3213534.35447   2507150.11547                  22212612.2694
        26.5004         25.7504
  21870093.0224   12968583.40048  10067709.91247                  21870098.2264
        30.5004         29.5004
 02  8  2 21 28 45.0030000  0  5G 1G11G14G20G25
  23806068.8514    3074942.59946    714126.64546                  23806076.2024
        16.5004         15.7504
  22546186.1404   14652770.89347  11417739.77846                  22546191.0384
        27.2504         24.5004
  24805172.2804   23026716.47946  17927981.88445                  24805179.5154
        13.0004         11.2504
  22217537.4524    3239443.13347   2527338.78347                  22217542.7964
        26.5004         26.0004
  21884293.0774   13043204.27048  10125856.04147                  21884298.0114
        30.7504         29.5004
 02  8  2 21 29  0.0030000  0  5G 1G11G14G20G25
  23810858.2264    3100113.19046    733740.12646                  23810865.8944
        16.2504         15.7504
  22561773.9444   14734683.80348  11481567.98946                  22561779.0654
        28.0004         24.5004
  24824060.5384   23125977.35546  18005327.96245                  24824068.2654
        12.7504         11.5004
  22222486.9294    3265452.30547   2547605.68147                  22222492.2374
        26.2504         26.0004
  21898521.4134   13117975.56948  10184119.39147                  21898526.4404
        30.7504         29.7504
 02  8  2 21 29 15.0030000  0  5G 1G11G14G20G25
  23815662.0544    3125358.05746    753411.50846                  23815669.6514
        15.7504         15.5004
  22577390.0544   14816749.01747  11545514.87746                  22577394.9174
        27.2504         24.5004
  24842956.6244   23225274.75846  18082702.51045                  24842963.7414
        12.5004         10.5004
  22227454.8584    3291560.24047   2567949.53347                  22227460.1444
        26.0004         25.7504
  21912778.3274   13192895.18348  10242498.30247                  21912783.4484
        31.2504         29.7504
 02  8  2 21 29 30.0030000  0  5G 1G11G14G20G25
  23820480.7804    3150679.66046    773142.65946                  23820488.1204
        16.2504         15.7504
  22593036.3354   14898968.79648  11609582.20546                  22593041.2574
        28.0004         24.2504
  24861859.2964   23324611.09845  18160107.39345                  24861865.8474
        11.7504         10.5004
  22232442.5694    3317769.65047   2588372.46047                  22232447.8784
        26.5004         26.2504
  21927063.6014   13267965.44448  10300994.60647                  21927068.5694
        31.0004         29.7504
 02  8  2 21 29 45.0030000  0  5G 1G11G14G20G25
  23825313.2574    3176076.20846    792932.22546                  23825319.7614
        16.0004         15.5004
  22608711.0854   14981341.25047  11673768.49646                  22608715.9014
        27.2504         24.2504
  24880768.7804   23423984.72345  18237541.35945                  24880776.4014
        11.7504         10.5004
  22237449.0544    3344079.10247   2608873.33747                  22237454.4794
        26.5004         26.0004
  21941377.3434   13343184.41448  10359606.78947                  21941382.2064
        31.0004         29.5004
 02  8  2 21 30  0.0030000  0  5G 1G11G14G20G25
  23830159.2184    3201538.19246    812772.78046                  23830166.0034
        16.7504         16.0004
  22624413.0934   15063856.51947  11738066.07346                  22624417.8394
        27.0004         24.2504
  24899685.1014   23523385.87646  18314996.75145                  24899692.4874
        12.0004         10.5004
  22242473.0224    3370479.20147   2629444.85147                  22242478.1204
        26.7504         26.0004
  21955717.2884   13418542.42548  10418327.30947                  21955722.3864
        30.0004         29.2504
 02  8  2 21 30 15.0030000  0  5G 1G11G14G20G25
  23835017.2574    3227071.67046    832669.03346                  23835024.5154
        16.5004         16.0004
  22640143.6324   15146520.48447  11802479.51946                  22640148.5304
        27.0004         24.5004
  24918606.9914   23622820.55145  18392478.24745                  24918613.8354
        11.0004         10.5004
  22247515.0694    3396976.32947   2650091.97247                  22247520.2264
        26.2504         26.2504
  21970085.0624   13494045.32648  10477160.73047                  21970090.1364
        30.2504         29.5004
 02  8  2 21 30 30.0030000  0  5G 1G11G14G20G25
  23839890.1634    3252677.81746    852621.92246                  23839896.5384
        16.7504         15.7504
  22655902.4914   15229333.94747  11867009.45746                  22655907.4484
        27.0004         24.2504
  24937535.4134   23722289.93845  18469986.81145                  24937543.0584
        11.5004         10.2504
  22252576.0384    3423571.92247   2670815.82247                  22252581.1834
        26.5004         26.0004
  21984480.6474   13569694.17648  10536107.88747                  21984485.6984
        30.5004         29.5004
 02  8  2 21 30 45.0030000  0  5G 1G11G14G20G25
  23844776.9524    3278356.66046    872631.45646                  23844783.4094
        16.7504         16.0004
  22671689.4214   15312296.75847  11931655.76646                  22671694.5774
        27.0004         24.2504
  24956470.3664   23821794.09345  18547522.45445                  24956476.8474
        11.5004         10.2504
  22257655.9834    3450266.36347   2691616.69447                  22257660.9994
        26.5004         26.2504
  21998903.6324   13645488.81148  10595168.62847                  21998908.9174
        29.7504         29.5004
 02  8  2 21 31  0.0030000  0  5G 1G11G14G20G25
  23849676.1554    3304104.98846    892695.14446                  23849683.1554
        16.5004         16.2504
  22687505.0774   15395405.40547  11996415.71446                  22687510.0694
        27.7504         24.5004
  24975411.5544   23921329.64845  18625082.56445                  24975419.1284
        11.0004         10.0004
  22262753.5464    3477056.63047   2712492.23447                  22262758.9014
        26.0004         26.2504
  22013354.0774   13721425.70548  10654340.22847                  22013359.4334
        29.7504         29.2504
 02  8  2 21 31 15.0030000  0  5G 1G11G14G20G25
  23854589.7574    3329925.53346    912815.07746                  23854596.7804
        16.7504         16.2504
  22703348.5854   15478662.37647  12061291.24046                  22703353.3664
        27.7504         24.2504
  24994358.5224   24020899.27645  18702669.23345                  24994365.1204
        11.5004         10.0004
  22267870.3664    3503945.60747   2733444.69147                  22267875.4644
        26.2504         26.5004
  22027832.0624   13797507.50148  10713624.73547                  22027837.2184
        30.0004         29.5004
 02  8  2 21 31 30.0030000  0  5G 1G11G14G20G25
  23859516.2574    3355815.59446    932989.19646                  23859523.2694
        17.0004         16.7504
  22719219.2884   15562064.88547  12126280.17346                  22719224.3624
        27.2504         24.2504
  25013312.2414   24120500.15645  18780280.24945                  25013318.8394
        11.5004         10.2504
  22273005.6324    3530930.92747   2754472.21447                  22273010.6594
        26.5004         26.7504
  22042337.0854   13873731.39148  10773019.96747                  22042342.2884
        30.0004         29.0004
 02  8  2 21 31 45.0030000  0  5G 1G11G14G20G25
  23864455.9684    3381774.30046    953216.80146                  23864463.6364
        17.0004         16.7504
  22735118.3194   15645611.62848  12191381.49446                  22735122.9724
        28.0004         24.0004
  25032271.5304   24220131.44045  18857914.98645                  25032277.8704
        11.7504         10.7504
  22278158.9834    3558011.98747   2775574.34647                  22278164.1984
        26.5004         26.2504
  22056868.4054   13950096.12848  10832524.94747                  22056873.6794
        29.7504         29.2504
 02  8  2 21 32  0.0030000  0  5G 1G11G14G20G25
  23869408.6474    3407801.97846    973498.14346                  23869416.3044
        16.5004         16.5004
  22751043.9054   15729302.75448  12256595.32646                  22751048.7334
        28.2504         24.2504
  25051235.6014   24319793.28845  18935573.52945                  25051242.9054
        10.5004         10.5004
  22283330.7184    3585189.29547   2796751.48047                  22283335.8624
        26.2504         26.5004
  22071427.3434   14026601.76748  10892139.72147                  22071432.4644
        30.2504         29.2504
 02  8  2 21 32 15.0030000  0  5G 1G11G14G20G25
  23874373.8274    3433891.80846    993827.92646                  23874381.2144
        17.0004         16.7504
  22766996.2104   15813131.17248  12321916.12846                  22767001.0034
        28.2504         24.5004
  25070206.0544   24419478.86445  19013250.50945                  25070213.0894
        10.5004         10.2504
  22288519.4764    3612456.27347   2817998.48047                  22288524.5504
        26.5004         26.5004
  22086011.4054   14103241.37448  10951858.88247                  22086016.4214
        30.7504         29.5004
 02  8  2 21 32 30.0030000  0  5G 1G11G14G20G25
  23879351.3824    3460049.09046   1014210.25946                  23879358.7694
        17.7504         16.5004
  22782975.0304   15897101.99447  12387347.90146                  22782979.8584
        27.7504         24.2504
  25089181.0224   24519193.52345  19090950.24845                  25089188.3624
        11.0004         10.5004
  22293726.3974    3639818.64547   2839319.81547                  22293731.5544
        26.5004         26.2504
  22100621.8274   14180020.22348  11011686.54947                  22100626.9254
        30.7504         29.7504
 02  8  2 21 32 45.0030000  0  5G 1G11G14G20G25
  23884342.5154    3486276.19946   1034647.00446                  23884349.4794
        18.0004         17.0004
  22798981.2334   15981217.29547  12452892.25446                  22798986.5304
        27.0004         24.2504
  25108162.0304   24618939.55945  19168674.33545                  25108169.8274
        11.5004         11.2504
  22298951.9214    3667278.84447   2860717.38147                  22298957.2654
        26.5004         26.2504
  22115259.3744   14256940.24848  11071624.22347                  22115264.3084
        31.2504         29.5004
 02  8  2 21 33  0.0030000  0  5G 1G11G14G20G25
  23889345.9374    3512567.58846   1055133.84346                  23889352.9954
        18.5004         17.0004
  22815014.2574   16065471.37547  12518544.74546                  22815019.4014
        27.0004         24.2504
  25127148.7414   24718711.30745  19246418.50145                  25127157.0774
        10.5004         10.5004
  22304195.0854    3694831.64647   2882187.11247                  22304200.3474
        26.2504         26.5004
  22129922.4604   14333995.68748  11131667.41647                  22129927.3474
        31.2504         29.7504
 02  8  2 21 33 15.0030000  0  5G 1G11G14G20G25
  23894359.5544    3538919.42446   1075667.78146                  23894366.4954
        17.7504         16.7504
  22831073.4134   16149860.31247  12584302.32846                  22831078.2884
        27.5004         24.0004
  25146138.6874   24818504.94645  19324179.72845                  25146145.3434
        10.5004          9.7504
  22309455.3664    3722473.54347   2903726.25247                  22309460.5584
        26.7504         26.5004
  22144610.8514   14411182.66948  11191813.11047                  22144615.6904
        31.7504         29.7504
 02  8  2 21 33 30.0030000  0  5G 1G11G14G20G25
  23899386.1084    3565335.41246   1096251.71646                  23899393.7294
        17.5004         17.0004
  22847158.1404   16234387.04947  12650167.27946                  22847163.2494
        27.0004         24.0004
  25165133.9054   24918323.98345  19401960.74045                  25165141.1754
        10.7504         10.0004
  22314732.8044    3750208.29447   2925337.76247                  22314737.9954
        26.5004         26.2504
  22159324.8044   14488504.50048  11252063.88047                  22159329.5154
        31.7504         29.7504
 02  8  2 21 33 45.0030000  0  5G 1G11G14G20G25
  23904426.2804    3591819.02646   1116888.33546                  23904433.1124
        18.0004         17.0004
  22863269.9914   16319054.89147  12716142.18646                  22863275.0304
        27.2504         24.0004
  25184133.6404   25018171.86145  19479764.24345                  25184140.9684
        11.2504         10.0004
  22320028.7024    3778039.87447   2947024.71247                  22320033.9994
        26.0004         26.2504
  22174064.9374   14565964.59448  11312422.38847                  22174069.8944
        31.7504         29.7504
 02  8  2 21 34  0.0030000  0  6G 1G22G11G14G20G25
  23909476.5074    3618360.64546   1137570.16046                  23909483.3154
        17.2504         17.0004
  25114133.3514       2812.61355
         8.5004
  22879406.7264   16403853.98447  12782219.36046                  22879411.8004
        27.2504         24.0004
  25203138.4764   25118038.98345  19557582.71445                  25203145.1084
        10.7504         10.5004
  22325341.6404    3805958.80747   2968779.73247                  22325347.0894
        25.7504         26.5004
  22188829.4764   14643553.10248  11372880.95347                  22188834.4564
        31.2504         29.5004
 02  8  2 21 34 15.0030000  0  6G 1G22G11G14G20G25
  23914538.5074    3644961.75346   1158298.32846                  23914545.4724
        17.2504         17.0004
  25115740.6474      11270.06544
         7.2504
  22895568.3664   16488785.75947  12848399.93246                  22895573.3584
        26.5004         23.5004
  25222145.8584   25217926.68945  19635417.23445                  25222153.4444
        10.2504          9.0004
  22330671.3664    3833966.84147   2990604.18047                  22330676.6044
        26.7504         26.5004
  22203618.8434   14721271.38448  11433440.64247                  22203623.8944
        31.2504         29.5004
 02  8  2 21 34 30.0030000  0  6G 1G22G11G14G20G25
  23919612.2884    3671624.69246   1179074.68746                  23919619.4874
        17.2504         17.0004
  25117356.7494      19752.87445
         8.5004
  22911755.9444   16573852.26247  12914685.47946                  22911761.0894
        26.2504         23.5004
  25241158.1164   25317837.28245  19713269.60445                  25241165.2924
         9.7504          9.2504
  22336018.9684    3862066.57247   3012500.08847                  22336024.1244
        27.0004         26.5004
  22218432.9444   14799121.32548  11494102.92647                  22218437.8904
        31.5004         29.5004
 02  8  2 21 34 45.0040000  0  6G 1G22G11G14G20G25
  23924698.4964    3698351.82546   1199901.05846                  23924705.4614
        17.7504         17.2504
  25118975.2694      28262.61545
         8.2504
  22927970.3714   16659059.44647  12981080.64646                  22927975.6914
        26.0004         23.7504
  25260175.9734   25417778.05945  19791145.47745                  25260183.5354
         9.2504          9.5004
  22341384.0354    3890260.81247   3034469.62947                  22341389.1334
        27.0004         26.7504
  22233273.5124   14877108.72548  11554872.31347                  22233278.4454
        31.0004         29.5004
 02  8  2 21 35  0.0040000  0  6G 1G22G11G14G20G25
  23929796.0434    3725138.44046   1220773.78546                  23929803.0434
        18.2504         17.5004
  25120599.8944      36797.53545
         8.7504
  22944209.4654   16744394.59047  13047575.53146                  22944214.7274
        26.0004         23.5004
  25279197.3164   25517734.46145  19869033.49545                  25279205.7344
         9.7504          9.5004
  22346766.3634    3918544.91647   3056509.19947                  22346771.4844
        27.0004         27.0004
  22248137.6524   14955221.80948  11615739.64447                  22248142.7384
        30.2504         29.2504
 02  8  2 21 35 15.0040000  0  6G 1G22G11G14G20G25
  23934904.6214    3751987.90546   1241695.49146                  23934911.8444
        17.0004         17.2504
  25122228.5984      45359.97745      1780.40155                  25122240.2504
         8.2504          8.5004
  22960473.8014   16829864.67547  13114175.55746                  22960479.1804
        26.0004         23.5004
  25298223.6444   25617714.55245  19946939.99145                  25298231.6524
        10.5004          9.5004
  22352166.3794    3946922.52447   3078621.62247                  22352171.5124
        26.7504         27.0004
  22263027.6524   15033466.96148  11676709.87847                  22263032.7384
        31.2504         29.5004
 02  8  2 21 35 30.0040000  0  6G 1G22G11G14G20G25
  23940026.1684    3778896.85346   1262663.54546                  23940033.4024
        18.2504         17.2504
  25123862.9884      53947.07845      8471.77945                  25123873.9024
         8.7504          8.7504
  22976763.2154   16915466.09347  13180877.92146                  22976768.5474
        26.0004         23.5004
  25317252.6764   25717715.06145  20024862.43845                  25317260.3094
        11.0004          9.0004
  22357583.6214    3975390.55647   3100804.51347                  22357588.6374
        27.0004         27.0004
  22277941.5434   15111840.89248  11737780.46147                  22277946.4884
        31.0004         29.2504
 02  8  2 21 35 45.0040000  0  6G 1G22G11G14G20G25
  23945157.7464    3805866.62646   1283678.99046                  23945165.3094
        18.0004         17.5004
  25125501.6684      62560.58345     15183.74645                  25125513.5554
         9.0004          9.7504
  22993077.7624   17001199.77347  13247683.34946                  22993083.0004
        26.2504         23.5004
  25336286.2544   25817737.23045  20102801.74945                  25336293.2194
        10.7504          9.2504
  22363018.2154    4003950.54147   3123059.04847                  22363023.2894
        26.5004         27.0004
  22292880.2694   15190344.60548  11798952.17547                  22292885.2624
        30.5004         29.2504
 02  8  2 21 36  0.0040000  0  6G 1G22G11G14G20G25
  23950301.0194    3832897.03046   1304741.67246                  23950308.4304
        18.0004         17.7504
  25127145.3484      71200.69045     21916.44245                  25127156.7544
         9.0004          9.7504
  23009417.4414   17087065.44147  13314591.61946                  23009422.5164
        26.2504         23.5004
  25355324.5274   25917780.86145  20180757.76245                  25355332.0904
        11.0004          8.7504
  22368470.3244    4032602.56247   3145385.30947                  22368475.4344
        26.2504         27.0004
  22307843.9104   15268977.67248  11860224.68347                  22307848.9024
        31.5004         29.2504
 02  8  2 21 36 15.0040000  0  6G 1G22G11G14G20G25
  23955456.1524    3859986.48746   1325850.38046                  23955463.1414
        18.2504         17.7504
  25128793.9574      79866.19045     28668.89745                  25128806.9694
         8.7504          9.7504
  23025782.3244   17173061.24347  13381601.29946                  23025787.6094
        26.5004         23.5004
  25374366.2854   26017844.22446  20258729.15845                  25374371.6414
        12.0004          9.0004
  22373940.3324    4061345.32547   3167782.27047                  22373945.2664
        27.0004         27.0004
  22322831.5044   15347738.27348  11921596.56947                  22322836.3674
        31.5004         29.2504
 02  8  2 21 36 30.0040000  0  6G 1G22G11G14G20G25
  23960623.3634    3887140.15046   1347009.11346                  23960630.4454
        18.0004         17.7504
  25130448.8554      88562.61145     35445.48745                  25130463.2384
         8.7504          9.5004
  23042172.1684   17259191.93247  13448716.07746                  23042177.5474
        26.0004         23.5004
  25393411.9414   26117932.44846  20336719.93345                  25393418.9534
        12.2504          8.7504
  22379428.1374    4090184.19047   3190254.11947                  22379433.2344
        27.2504         27.0004
  22337844.1764   15426631.33248  11983071.66747                  22337849.1914
        31.0004         29.5004
 02  8  2 21 36 45.0040000  0  6G 1G22G11G14G20G25
  23965802.6214    3914354.50146   1368215.14546                  23965809.8204
        18.7504         18.0004
  25132109.1054      97286.79445     42243.73645                  25132122.5274
         9.2504          9.7504
  23058587.6684   17345453.70447  13515933.00946                  23058592.8124
        26.5004         23.5004
  25412462.5124   26218041.87746  20414727.25245                  25412469.0864
        12.5004          9.0004
  22384933.7384    4119115.94747   3212798.35247                  22384938.8014
        27.0004         27.2504
  22352881.5124   15505653.25448  12044647.17447                  22352886.4224
        31.0004         29.5004
 02  8  2 21 37  0.0040000  0  6G 1G22G11G14G20G25
  23970993.3944    3941632.45246   1389470.73146                  23971000.4414
        18.5004         18.0004
  25133777.2464     106042.10745     49066.18545                  25133788.3014
        11.5004         11.0004
  23075028.4344   17431849.60647  13583254.44846                  23075033.3554
        26.7504         23.5004
  25431517.4574   26318175.47346  20492753.41245                  25431523.8324
        13.0004          8.7504
  22390457.5594    4148143.81747   3235417.47847                  22390462.6914
        27.0004         27.2504
  22367944.1524   15584806.66748  12106325.14947                  22367949.2384
        31.2504         29.5004
 02  8  2 21 37 15.0040000  0  6G 1G22G11G14G20G25
  23976194.9804    3968970.93346   1410773.47446                  23976201.9804
        18.2504         18.0004
  25135447.3634     114825.89645     55910.83845                  25135457.9494
        10.7504         11.2504
  23091494.0124   17518375.78447  13650677.40746                  23091499.0624
        27.0004         23.5004
  25450576.3714   26418330.08446  20570795.90745                  25450582.1954
        12.2504          8.2504
  22395998.8554    4177264.94647   3258109.27047                  22396004.1174
        26.7504         27.0004
  22383030.9804   15664088.29648  12168103.02947                  22383036.0904
        31.5004         29.5004
 02  8  2 21 37 30.0040000  0  6G 1G22G11G14G20G25
  23981409.0824    3996368.51146   1432122.28646                  23981415.8554
        19.0004         17.7504
  25137123.6214     123637.14245     62776.90845                  25137135.1214
        10.0004         11.2504
  23107983.4734   17605030.70147  13718200.67746                  23107988.6294
        26.5004         23.2504
  25469638.7234   26518504.40546  20648853.78645                  25469646.3204
        12.2504          8.0004
  22401557.8484    4206478.20847   3280872.86047                  22401562.9344
        26.7504         27.0004
  22398141.7694   15743496.64248  12229979.64747                  22398146.6914
        31.2504         29.5004
 02  8  2 21 37 45.0040000  0  6G 1G22G11G14G20G25
  23986633.8714    4023825.59846   1453517.44246                  23986640.5984
        18.5004         18.0004
  25138805.7544     132476.69445     69665.02945                  25138817.1134
        10.5004         10.5004
  23124498.0664   17691814.52547  13785824.39346                  23124503.1524
        26.7504         23.5004
  25488704.4574   26618698.61145  20726927.16045                  25488711.5624
        11.2504          6.7504
  22407134.8094    4235784.26947   3303708.75947                  22407139.9774
        26.7504         27.2504
  22413276.8794   15823031.92248  12291955.18147                  22413281.7074
        31.7504         29.5004
 02  8  2 21 38  0.0040000  0  6G 1G22G11G14G20G25
  23991869.8014    4051340.58446   1474957.72846                  23991876.5044
        18.7504         17.7504
  25140492.3944     141343.28545     76574.20845                  25140504.5624
        10.5004         11.2504
  23141036.4964   17778725.38047  13853547.10346                  23141041.6054
        26.5004         23.2504
  25507774.5194   26718911.08645  20805014.74045                  25507780.4264
        11.7504          7.7504
  22412729.0984    4265181.69947   3326615.85147                  22412734.0784
        27.2504         27.5004
  22428436.1054   15902692.04248  12354027.98847                  22428440.8874
        32.0004         29.5004
 02  8  2 21 38 15.0040000  0  6G 1G22G11G14G20G25
  23997117.5274    4078916.55546   1496445.53746                  23997123.9614
        19.0004         18.0004
  25142185.0274     150240.46045     83507.21645                  25142197.1844
        10.7504         11.2504
  23157599.9574   17865766.04547  13921370.95946                  23157604.8554
        26.5004         23.5004
  25526848.5594   26819144.93145  20883119.03445                  25526855.6764
        11.5004          7.7504
  22418341.4654    4294673.92147   3349596.81147                  22418346.2114
        27.5004         27.7504
  22443618.6914   15982479.85448  12416200.29447                  22443623.5314
        30.7504         29.5004
 02  8  2 21 38 30.0040000  0  6G 1G22G11G14G20G25
  24002376.4494    4106555.45646   1517982.38346                  24002383.0124
        18.2504         18.0004
  25143885.3094     159170.49845     90465.82545                  25143897.8984
        11.5004         11.5004
  23174188.2694   17952938.21847  13989297.28646                  23174193.3444
        26.2504         23.5004
  25545927.2544   26919401.99145  20961241.35845                  25545932.8914
        11.5004          8.2504
  22423971.9654    4324263.05847   3372653.28747                  22423976.9344
        27.2504         27.2504
  22458826.7544   16062397.31648  12478473.62747                  22458831.6054
        31.2504         29.0004
 02  8  2 21 38 45.0040000  0  6G 1G22G11G14G20G25
  24007648.0984    4134256.98346   1539568.01246                  24007654.5784
        18.7504         18.0004
  25145590.5744     168133.42845     97450.05445                  25145602.3914
        11.7504         11.2504
  23190801.3014   18040241.31847  14057325.63746                  23190806.5744
        25.5004         23.0004
  25565009.4104   27019681.94145  21039381.51545                  25565016.3404
        11.0004          8.0004
  22429620.8484    4353949.09447   3395785.26447                  22429625.8984
        27.2504         27.5004
  22474059.2304   16142443.72848  12540847.44447                  22474063.9414
        31.5004         29.2504
 02  8  2 21 39  0.0040000  0  6G 1G22G11G14G20G25
  24012931.0514    4162018.25246   1561200.21046                  24012937.5904
        18.7504         18.0004
  25147301.8794     177126.95445    104458.15145                  25147313.8944
        11.5004         11.0004
  23207438.9964   18127672.24347  14125453.58546                  23207444.1524
        25.5004         23.0004
  25584095.9494   27119981.79945  21117537.21345                  25584103.8054
        10.5004          8.0004
  22435288.0194    4383729.42847   3418990.72547                  22435293.0704
        27.5004         27.5004
  22489315.0984   16222616.02248  12603319.35047                  22489319.8324
        31.0004         29.2504
 02  8  2 21 39 15.0040000  0  6G 1G22G11G14G20G25
  24018225.5124    4189840.27046   1582879.74046                  24018232.6874
        18.7504         18.2504
  25149019.7854     186152.46345    111491.16545                  25149030.7234
        11.5004         11.0004
  23224101.0354   18215231.89847  14193681.84646                  23224106.3674
        25.5004         22.7504
  25603186.8484   27220302.55245  21195709.16145                  25603193.8364
        10.7504          8.2504
  22440972.9494    4413605.36547   3442270.68047                  22440977.9534
        26.7504         27.5004
  22504595.6214   16302915.05048  12665890.01347                  22504600.6954
        30.7504         29.2504
 02  8  2 21 39 30.0040000  0  6G 1G22G11G14G20G25
  24023530.6764    4217721.75046   1604605.59846                  24023537.5944
        18.5004         18.2504
  25150742.1374     195208.99145    118548.31945                  25150754.1994
        10.0004         10.5004
  23240787.6134   18302918.41747  14262008.96546                  23240793.2624
        25.5004         22.7504
  25622280.4964   27320642.86645  21273896.37045                  25622289.3834
        10.0004          7.7504
  22446676.0984    4443575.91447   3465624.36447                  22446681.1374
        27.0004         27.5004
  22519899.7544   16383339.29448  12728558.24247                  22519904.8164
        30.5004         29.0004
 02  8  2 21 39 45.0040000  0  6G 1G22G11G14G20G25
  24028848.2774    4245664.91446   1626379.52946                  24028855.5354
        18.5004         18.7504
  25152471.8014     204299.20445    125631.75045                  25152484.1684
        10.0004         10.2504
  23257498.5044   18390733.76947  14330436.46946                  23257503.7074
        26.5004         22.7504
  25641378.5594   27421004.94945  21352100.54345                  25641385.6764
         9.5004          8.0004
  22452397.8714    4473643.44647   3489053.61347                  22452402.8754
        27.2504         27.7504
  22535228.2154   16463890.77448  12791325.61847                  22535233.2304
        30.7504         29.0004
 02  8  2 21 40  0.0040000  0  6G 1G22G11G14G20G25
  24034177.5514    4273669.88146   1648201.61546                  24034184.5744
        19.2504         18.2504
  25154208.8404     213423.56745    132741.74945                  25154220.0944
        10.5004         10.2504
  23274233.5124   18478677.78447  14398964.23246                  23274238.5514
        26.2504         22.7504
  25660481.4264   27521388.82545  21430321.65545                  25660488.1644
         8.7504          7.5004
  22458138.2234    4503808.41047   3512558.78247                  22458143.1914
        27.2504         27.5004
  22550580.7624   16544569.41648  12854192.07347                  22550585.8834
        30.2504         29.0004
 02  8  2 21 40 15.0040000  0  6G 1G22G11G14G20G25
  24039517.7464    4301735.88846   1670071.26746                  24039524.7814
        18.5004         18.2504
  25155950.5194     222581.82445    139878.21145                  25155961.1994
         9.5004         10.2504
  23290992.6994   18566749.39647  14467591.42246                  23290997.9374
        25.5004         22.7504
  25679588.6214   27621793.67145  21508559.18345                  25679595.5164
         9.2504          7.2504
  22463896.5664    4534070.19347   3536139.40047                  22463901.6994
        26.7504         27.5004
  22565957.5664   16625374.29448  12917156.90347                  22565962.4534
        30.5004         29.0004
 02  8  2 21 40 30.0040000  0  6G 1G22G11G14G20G25
  24044870.0594    4329861.18147   1691987.11146                  24044876.9884
        20.2504         19.0004
  25157699.6524     231772.46545    147039.89045                  25157710.6254
         9.7504         10.2504
  23307775.9734   18654946.73547  14536316.58046                  23307781.2344
        23.2504         22.5004
  25698697.8324   27722217.67145  21586811.62445                  25698703.7624
         9.5004          6.5004
  22469673.2624    4564427.28147   3559794.28247                  22469678.4064
        25.0004         27.0004
  22581357.8094   16706303.32148  12980218.47247                  22581363.0124
        29.5004         28.2504
 02  8  2 21 40 45.0040000  0  6G 1G22G11G14G20G25
  24050234.2854    4358049.39747   1713951.97946                  24050241.0824
        20.5004         19.2504
  25159455.5594     240999.68745    154230.07645                  25159466.8124
        10.2504         10.5004
  23324583.7694   18743273.15547  14605142.31246                  23324589.4064
        22.7504         21.5004
  25717811.3714   27822664.48845  21665081.81345                  25717820.5624
         8.7504          7.0004
  22475468.7074    4594883.80047   3583526.64447                  22475474.2854
        24.7504         25.7504
  22596782.2464   16787359.95348  13043379.47647                  22596787.7194
        29.0004         27.7504
 02  8  2 21 41  0.0040000  0  6G 1G22G11G14G20G25
  24055610.6604    4386301.78847   1735966.85746                  24055617.8014
        21.5004         19.7504
  25161218.8554     250265.15145    161450.03345                  25161229.6294
        11.7504         11.5004
  23341416.7234   18831729.48747  14674069.29246                  23341422.6054
        22.7504         22.0004
  25736930.8874   27923135.30445  21743370.69945                  25736938.2384
         9.0004          6.0004
  22481283.5514    4625441.13647   3607337.56147                  22481289.1524
        24.7504         25.7504
  22612231.4184   16868545.26048  13106640.73647                  22612236.7384
        29.2504         27.5004
 02  8  2 21 41 15.0050000  0  6G 1G22G11G14G20G25
  24060999.6654    4414622.51247   1758034.99646                  24061006.4274
        21.5004         19.5004
  25162988.1884     259572.09645    168702.31645                  25162999.5834
        10.7504         11.0004
  23358275.0484   18920323.74947  14743103.73946                  23358280.6384
        22.0004         22.0004
  25756056.4704   28023639.11745  21821685.29145                  25756063.9744
         8.7504          5.7504
  22487118.7904    4656103.90847   3631230.64047                  22487124.1224
        25.2504         26.0004
  22627706.4234   16949866.69948  13170008.08047                  22627711.4974
        29.2504         27.5004
 02  8  2 21 41 30.0050000  0  5G 1G22G11G20G25
  24066399.2204    4443000.07647   1780147.42446                  24066405.7244
        21.0004         19.5004
  25164766.8134     268912.03446    175980.31546                  25164778.7474
        12.2504         12.2504
  23375157.1654   19009036.06847  14812230.17146                  23375162.4854
        22.5004         21.7504
  22492971.6104    4686860.54647   3655196.85547                  22492976.8844
        25.5004         25.7504
  22643203.5794   17031305.48448  13233466.86247                  22643208.8414
        28.7504         27.5004
 02  8  2 21 41 45.0050000  0  5G 1G22G11G20G25
  24071811.9624    4471445.20647   1802312.49446                  24071818.9154
        20.5004         19.2504
  25166551.5484     278294.86846    183291.73246                  25166562.1814
        12.5004         12.2504
  23392063.8214   19097880.93847  14881459.90146                  23392069.3064
        22.7504         21.5004
  22498844.4624    4717722.18947   3679244.89347                  22498849.6064
        26.2504         26.0004
  22658726.0564   17112875.58848  13297027.96547                  22658731.1774
        29.7504         28.0004
 02  8  2 21 42  0.0050000  0  5G 1G22G11G20G25
  24077237.5404    4499954.26446   1824527.40146                  24077244.6694
        19.2504         19.0004
  25168344.9234     287717.22845    190633.94845                  25168356.3534
        11.2504         10.5004
  23408995.0714   19186854.42847  14950789.84746                  23409000.3804
        25.2504         21.7504
  22504736.4384    4748685.49347   3703372.14047                  22504741.5484
        26.5004         27.5004
  22674272.6264   17194573.13348  13360688.36647                  22674277.7244
        30.2504         28.7504
 02  8  2 21 42 15.0050000  0  5G 1G22G11G20G25
  24082674.1884    4528525.96246   1846791.09146                  24082681.0714
        18.7504         18.7504
  25170145.4624     297178.37946    198006.38545                  25170157.1264
        12.0004         11.2504
  23425950.2204   19275955.03047  15020218.84146                  23425955.4114
        25.0004         21.7504
  22510647.7674    4779749.34647   3727577.75047                  22510652.9464
        27.0004         27.5004
  22689843.0174   17276396.70848  13424446.98347                  22689848.3134
        29.7504         28.7504
 02  8  2 21 42 30.0050000  0  5G 1G22G11G20G25
  24088123.7514    4557164.49046   1869106.86346                  24088130.8104
        18.5004         18.5004
  25171954.9704     306682.84146    205412.59445                  25171965.2284
        12.7504         11.5004
  23442930.6494   19365186.54747  15089749.85146                  23442935.8534
        25.2504         21.7504
  22516578.9544    4810918.25247   3751865.21247                  22516583.9814
        26.7504         27.7504
  22705437.9544   17358350.27248  13488306.89247                  22705443.3454
        29.0004         29.0004
 02  8  2 21 42 45.0050000  0  5G 1G22G11G20G25
  24093585.5714    4585866.23646   1891471.89446                  24093592.6064
        18.5004         18.7504
  25173769.8294     316227.44545    212850.05145                  25173780.0174
        11.7504         11.0004
  23459935.0954   19454545.02647  15159379.78646                  23459940.4504
        25.2504         21.5004
  22522529.4704    4842188.95947   3776232.00847                  22522534.4974
        27.0004         27.7504
  22721057.6104   17440429.97048  13552265.08147                  22721063.0834
        29.2504         28.5004
 02  8  2 21 43  0.0050000  0  5G 1G22G11G20G25
  24099059.7984    4614629.85146   1913885.12646                  24099066.5244
        19.2504         19.0004
  25175593.7284     325811.22745    220318.05645                  25175604.9234
        11.7504         11.5004
  23476963.3534   19544028.92247  15229107.45446                  23476968.9894
        25.2504         21.7504
  22528499.5874    4873560.37747   3800677.27347                  22528504.6384
        27.2504         27.7504
  22736700.3844   17522634.22448  13616320.32947                  22736705.6224
        30.0004         28.7504
 02  8  2 21 43 15.0050000  0  5G 1G22G11G20G25
  24104545.7434    4643459.54246   1936349.85846                  24104552.2594
        19.7504         19.0004
  25177425.6884     335438.91045    227820.25145                  25177437.5174
        11.5004         10.7504
  23494015.9234   19633642.14047  15298935.88646                  23494021.3254
        25.5004         22.0004
  22534489.2434    4905036.85047   3825204.40547                  22534494.2594
        27.0004         27.7504
  22752367.8604   17604967.06948  13680475.78247                  22752373.0054
        29.5004         28.7504
 02  8  2 21 43 30.0050000  0  5G 1G22G11G20G25
  24110043.7514    4672354.23246   1958865.23046                  24110050.7514
        19.0004         19.0004
  25179266.1964     345109.64345    235355.99945                  25179277.0634
        11.2504         11.0004
  23511093.3604   19723383.31647  15368864.03846                  23511098.7284
        25.7504         21.7504
  22540498.5174    4936617.52247   3849812.72547                  22540503.7554
        26.5004         27.7504
  22768059.6184   17687426.97748  13744730.24547                  22768064.8334
        30.2504         29.0004
 02  8  2 21 43 45.0050000  0  5G 1G22G11G20G25
  24115554.7204    4701311.98746   1981429.75446                  24115561.6384
        19.5004         18.7504
  25181114.3064     354822.04345    242924.22045                  25181124.8924
        11.0004         11.2504
  23528194.7204   19813250.19947  15438890.13246                  23528200.1454
        26.2504         22.2504
  22546527.9234    4968300.72747   3874500.94647                  22546533.1854
        26.7504         27.7504
  22783775.1654   17770011.93148  13809082.14447                  22783780.4504
        30.0004         29.0004
 02  8  2 21 44  0.0050000  0  5G 1G22G11G20G25
  24121076.6654    4730332.09646   2004042.85046                  24121083.4744
        19.5004         18.7504
  25182969.7594     364575.76545    250524.63945                  25182980.9664
        10.7504         11.0004
  23545319.4624   19903241.66147  15509013.29946                  23545325.0054
        25.7504         22.0004
  22552576.2514    5000086.09147   3899268.76447                  22552581.3954
        26.7504         27.7504
  22799513.7744   17852721.06748  13873530.80747                  22799519.0954
        29.7504         28.7504
 02  8  2 21 44 15.0050000  0  5G 1G22G11G20G25
  24126611.0094    4759414.74746   2026704.69246                  24126617.5364
        19.2504         19.0004
  25184834.1344     374371.37045    258157.69245                  25184843.6424
        11.7504         11.5004
  23562467.8684   19993357.78647  15579233.61546                  23562473.2354
        25.5004         22.0004
  22558644.6734    5031974.05647   3924116.53747                  22558649.7244
        27.0004         28.0004
  22815276.6424   17935554.34948  13938076.20347                  22815282.0564
        29.7504         28.7504
 02  8  2 21 44 30.0050000  0  5G 1G22G11G20G25
  24132157.3374    4788561.08846   2049416.15846                  24132164.1224
        19.5004         19.0004
  25186707.0484     384210.45846    265824.61945                  25186716.5094
        12.2504         11.5004
  23579640.2904   20083599.47647  15649551.76746                  23579645.5174
        25.2504         21.7504
  22564732.1814    5063966.01147   3949045.33947                  22564737.3604
        26.7504         28.0004
  22831063.1344   18018512.53348  14002718.93747                  22831068.3724
        30.5004         28.7504
 02  8  2 21 44 45.0050000  0  5G 1G22G11G20G25
  24137715.8294    4817771.91846   2072177.87146                  24137722.5674
        19.2504         19.0004
  25188588.0244     394094.28946    273526.41645                  25188597.8254
        12.5004         11.7504
  23596836.9464   20173967.17647  15719968.10446                  23596842.2314
        25.5004         21.7504
  22570840.2674    5096063.05547   3974056.03247                  22570845.2944
        27.2504         28.0004
  22846873.3294   18101596.32448  14067459.54047                  22846878.6144
        30.2504         29.0004
 02  8  2 21 45  0.0050000  0  5G 1G22G11G20G25
  24143286.1734    4847043.69146   2094987.08146                  24143292.5714
        19.2504         18.7504
  25190476.1104     404019.75945    281260.66145                  25190486.5914
        11.7504         11.7504
  23614056.6574   20264456.86047  15790479.50146                  23614062.0364
        26.0004         21.5004
  22576967.3844    5128261.95047   3999146.09047                  22576972.2244
        27.2504         28.0004
  22862706.6814   18184801.95148  14132295.08247                  22862712.0714
        30.0004         29.0004
 02  8  2 21 45 15.0050000  0  5G 1G22G11G20G25
  24148867.2514    4876373.73646   2117841.69146                  24148873.9314
        19.0004         18.7504
  25192371.7674     413984.54145    289025.49145                  25192382.6224
        11.7504         11.7504
  23631299.4854   20355065.87447  15861083.87846                  23631304.6064
        26.5004         21.7504
  22583113.4934    5160560.26347   4024313.60847                  22583118.3454
        26.7504         28.0004
  22878563.1104   18268126.47648  14197223.26947                  22878568.5244
        30.2504         29.0004
 02  8  2 21 45 30.0050000  0  5G 1G22G11G20G25
  24154460.5324    4905764.64646   2140743.72546                  24154467.3644
        19.2504         18.7504
  25194276.0014     423991.75245    296823.41845                  25194286.9504
        11.5004         11.7504
  23648564.6264   20445796.38447  15931782.92846                  23648569.7244
        26.2504         21.5004
  22589279.4074    5192960.91547   4049560.87447                  22589284.2944
        27.0004         28.0004
  22894442.6574   18351572.32048  14262245.99347                  22894447.9424
        31.2504         29.0004
 02  8  2 21 45 45.0050000  0  5G 1G22G11G20G25
  24160064.7044    4935214.03246   2163691.33646                  24160071.4784
        19.7504         19.0004
  25196187.3844     434039.30245    304652.77545                  25196199.2704
        11.2504         11.2504
  23665852.3374   20536645.64347  16002574.51146                  23665857.5284
        25.5004         21.7504
  22595463.9544    5225461.67747   4074886.14647                  22595468.7944
        27.2504         28.0004
  22910344.2984   18435136.87548  14327361.22147                  22910349.6064
        30.5004         29.0004
 02  8  2 21 46  0.0050000  0  5G 1G22G11G20G25
  24165679.7354    4964723.01747   2186685.39246                  24165686.3104
        20.0004         19.0004
  25198108.3844     444128.78245    312514.79645                  25198118.1614
        11.7504         11.0004
  23683162.8764   20627614.48047  16073459.27946                  23683168.0914
        25.0004         21.2504
  22601667.8604    5258063.90747   4100290.48347                  22601672.9584
        26.7504         28.2504
  22926268.8604   18518820.99048  14392569.61147                  22926274.1694
        30.5004         29.0004
 02  8  2 21 46 15.0050000  0  5G 1G22G11G20G25
  24171306.4464    4994290.17847   2209724.76146                  24171313.0794
        20.2504         19.2504
  25200034.9854     454259.20345    320408.73445                  25200044.9624
        10.5004         10.7504
  23700496.4854   20718701.34847  16144436.00746                  23700501.9354
        24.5004         21.0004
  22607890.9464    5290766.53947   4125773.06147                  22607895.9274
        27.0004         28.2504
  22942215.8994   18602623.00748  14457869.87747                  22942221.1264
        30.5004         28.7504
 02  8  2 21 46 30.0050000  0  5G 1G22G11G20G25
  24176945.3064    5023922.02247   2232814.53846                  24176951.9504
        20.0004         19.2504
  25201971.8924     464437.38545    328339.89745                  25201982.6184
        10.7504         11.0004
  23717853.4544   20809912.27447  16215509.40846                  23717858.5754
        25.0004         21.2504
  22614134.5094    5323576.27747   4151339.09547                  22614139.4194
        27.2504         28.2504
  22958186.3604   18686549.22448  14523266.92047                  22958191.8454
        30.2504         28.7504
 02  8  2 21 46 45.0050000  0  5G 1G22G11G20G25
  24182594.7124    5053615.57746   2255952.40346                  24182601.5834
        19.0004         19.0004
  25203917.2354     474660.90945    336306.36945                  25203927.3534
        11.0004         11.5004
  23735233.0174   20901244.03347  16286676.97046                  23735238.3024
        24.5004         20.7504
  22620397.6574    5356490.38247   4176986.45447                  22620402.7434
        26.7504         28.2504
  22974179.8994   18770596.43348  14588758.23947                  22974185.3374
        30.0004         28.7504
 02  8  2 21 47  0.0050000  0  5G 1G22G11G20G25
  24188256.5324    5083367.29646   2279135.59246                  24188263.2474
        19.2504         19.0004
  25205871.1734     484926.61945    344305.71845                  25205880.7044
        11.2504         10.7504
  23752634.9464   20992692.77447  16357935.67846                  23752640.4544
        24.2504         20.7504
  22626680.3764    5389505.62547   4202712.62347                  22626685.6614
        27.0004         28.2504
  22990195.8604   18854760.74148  14654340.80247                  22990201.4744
        30.2504         28.7504
 02  8  2 21 47 15.0050000  0  5G 1G22G11G20G25
  24193929.1184    5113176.21346   2302363.35446                  24193936.1424
        18.7504         19.2504
  25207832.6964     495233.87045    352337.43145                  25207843.6814
        11.5004         11.7504
  23770059.8764   21084257.18647  16429284.51946                  23770064.9034
        25.5004         20.7504
  22632982.4934    5422621.29647   4228517.04647                  22632987.5324
        27.5004         28.2504
  23006233.9704   18939040.98248  14720013.70847                  23006239.4894
        30.5004         28.7504
 02  8  2 21 47 30.0050000  0  5G 1G22G11G20G25
  24199613.4934    5143047.92346   2325640.03846                  24199620.5754
        19.5004         19.0004
  25209802.6344     505588.77345    360406.28145                  25209813.1034
        11.7504         11.5004
  23787506.7514   21175942.69647  16500727.73546                  23787511.9664
        25.0004         20.7504
  22639304.4464    5455843.24747   4254404.28347                  22639309.4154
        27.7504         28.2504
  23022295.1424   19023442.58348  14785781.17647                  23022300.2984
        30.5004         29.0004
 02  8  2 21 47 45.0050000  0  5G 1G22G11G20G25
  24205308.5634    5172975.11747   2348959.96046                  24205315.2434
        20.2504         19.0004
  25211781.2124     515984.40146    368506.85846                  25211791.2944
        12.5004         12.0004
  23804976.0324   21267741.62947  16572259.31746                  23804981.0244
        26.0004         21.2504
  22645645.1574    5489164.46847   4280368.87247                  22645650.0914
        27.2504         28.5004
  23038378.1964   19107958.15848  14851637.45547                  23038383.2354
        31.2504         29.0004
 02  8  2 21 48  0.0060000  0  5G 1G22G11G20G25
  24211014.9044    5202961.43746   2372325.94646                  24211021.9514
        19.7504         19.0004
  25213767.5534     526423.63846    376641.38245                  25213778.3614
        12.7504         11.5004
  23822467.4514   21359661.45647  16643885.10846                  23822473.1114
        24.7504         20.7504
  22652005.4754    5522589.07047   4306414.02347                  22652010.4204
        27.2504         28.5004
  23054483.5924   19192594.56048  14917587.89247                  23054488.5724
        31.0004         29.0004
 02  8  2 21 48 15.0060000  0  5G 1G22G11G20G25
  24216731.6074    5233003.79146   2395735.60546                  24216738.4284
        19.7504         19.0004
  25215762.1934     536906.23546    384809.73645                  25215772.6744
        12.7504         11.7504
  23839980.1074   21451690.41847  16715595.94446                  23839985.6394
        24.5004         20.7504
  22658384.9984    5556113.69847   4332537.11047                  22658389.8384
        27.7504         28.7504
  23070610.2644   19277341.11148  14983624.15947                  23070615.4554
        31.0004         29.0004
 02  8  2 21 48 30.0060000  0  5G 1G22G11G20G25
  24222458.6464    5263101.05346   2419188.04246                  24222465.2214
        19.5004         19.0004
  25217764.7484     547430.25946    393010.34745                  25217775.0184
        12.2504         11.7504
  23857513.8424   21543831.28147  16787393.96146                  23857519.6074
        24.7504         20.7504
  22664783.3964    5589737.73447   4358737.66747                  22664788.2014
        27.0004         28.2504
  23086758.7094   19362200.16348  15049748.07747                  23086764.0644
        31.2504         29.0004
 02  8  2 21 48 45.0060000  0  5G 1G22G11G20G25
  24228198.2714    5293263.00046   2442690.88446                  24228204.6824
        19.7504         18.7504
  25219777.1544     558005.85845    401251.14145                  25219786.8614
        11.7504         11.2504
  23875070.9594   21636093.44847  16859286.51346                  23875076.4784
        24.5004         20.7504
  22671202.6544    5623471.36947   4385023.61647                  22671207.6464
        27.0004         28.0004
  23102930.2094   19447181.39048  15115967.20347                  23102935.2714
        31.5004         29.0004
 02  8  2 21 49  0.0060000  0  5G 1G22G11G20G25
  24233948.4514    5323479.30447   2466236.08146                  24233955.1894
        20.0004         19.2504
  25221796.9124     568623.30245    409524.57945                  25221806.5724
        11.7504         11.7504
  23892649.0684   21728466.46747  16931265.43846                  23892654.7054
        24.7504         20.5004
  22677640.6154    5657304.44747   4411387.05147                  22677645.6784
        26.5004         28.2504
  23119122.6314   19532274.20848  15182273.28547                  23119127.7874
        31.2504         29.0004
 02  8  2 21 49 15.0060000  0  5G 1G22G11G20G25
  24239708.6704    5353750.56246   2489824.10546                  24239715.2914
        19.7504         19.0004
  25223825.5684     579283.38946    417831.21845                  25223835.6744
        12.2504         11.7504
  23910247.9514   21820950.68247  17003331.01646                  23910253.3184
        25.0004         21.0004
  22684098.0064    5691237.76147   4437828.59847                  22684103.1274
        26.7504         28.2504
  23135336.6314   19617478.94648  15248666.57347                  23135341.8224
        31.7504         29.0004
 02  8  2 21 49 30.0060000  0  5G 1G22G11G20G25
  24245480.2564    5384079.44846   2513457.02446                  24245486.7834
        19.7504         19.2504
  25225863.3344     589989.36246    426173.62845                  25225873.6394
        12.7504         11.7504
  23927869.1074   21913548.25047  17075484.91446                  23927874.5334
        25.0004         20.7504
  22690574.8114    5725274.28347   4464350.56147                  22690580.1194
        26.5004         28.2504
  23151572.2014   19702797.90448  15315148.87047                  23151577.2054
        31.5004         29.0004
 02  8  2 21 49 45.0060000  0  5G 1G22G11G20G25
  24251263.3734    5414467.61847   2537136.13846                  24251269.9244
        20.5004         19.5004
  25227909.5214     600743.26246    434553.35546                  25227920.5534
        12.7504         12.2504
  23945511.7094   22006260.53847  17147728.20546                  23945516.9944
        25.2504         20.7504
  22697072.2484    5759416.04447   4490954.53547                  22697077.4634
        27.0004         28.5004
  23167830.2174   19788232.53748  15381721.29547                  23167835.1034
        32.0004         29.0004
 02  8  2 21 50  0.0060000  0  5G 1G22G11G20G25
  24257055.7094    5444910.47646   2560857.87746                  24257062.4944
        19.7504         19.0004
  25229964.3504     611540.86246    442967.16046                  25229975.0414
        12.5004         12.2504
  23963174.9204   22099082.72147  17220057.13446                  23963180.3224
        24.5004         20.5004
  22703588.2094    5793658.58047   4517637.03547                  22703593.2484
        27.0004         28.5004
  23184108.9824   19873778.08848  15448380.15847                  23184113.8574
        32.2504         29.0004
 02  8  2 21 50 15.0060000  0  5G 1G22G11G20G25
  24262859.6394    5475409.67547   2584623.51146                  24262866.2014
        20.2504         19.2504
  25232027.1544     622384.30746    451416.66646                  25232037.4244
        12.5004         12.0004
  23980860.3424   22192015.82847  17292472.48246                  23980865.7214
        26.2504         20.7504
  22710124.2254    5828003.80747   4544399.54547                  22710129.1824
        27.0004         28.5004
  23200408.8264   19959435.89948  15515126.49547                  23200413.7714
        31.5004         29.0004
 02  8  2 21 50 30.0060000  0  5G 1G22G11G20G25
  24268674.1704    5505965.04846   2608432.92446                  24268680.5924
        19.7504         19.5004
  25234098.7404     633273.82645    459902.09745                  25234109.4674
        11.5004         11.7504
  23998565.0214   22285059.79747  17364974.23746                  23998570.1894
        24.5004         20.5004
  22716678.9434    5862451.86847   4571242.19347                  22716684.0414
        26.7504         28.2504
  23216730.5064   20045205.71848  15581960.10647                  23216735.4984
        31.7504         29.0004
 02  8  2 21 50 45.0060000  0  5G 1G22G11G20G25
  24274498.5844    5536573.73947   2632283.87146                  24274504.9714
        20.0004         19.7504
  25236180.3814     644206.97346    468421.49746                  25236190.0644
        12.5004         12.0004
  24016291.8654   22378211.32847  17437559.79846                  24016296.9044
        25.0004         20.5004
  22723253.3964    5897000.12147   4598162.91347                  22723258.6824
        26.5004         28.2504
  23233072.7174   20131084.38948  15648878.54347                  23233077.5104
        31.7504         28.7504
 02  8  2 21 51  0.0060000  0  5G 1G22G11G20G25
  24280333.5374    5567235.40047   2656176.10346                  24280339.8184
        20.5004         19.5004
  25238269.2324     655183.82746    476974.97846                  25238279.2794
        12.7504         13.0004
  24034038.2874   22471469.80447  17510228.68846                  24034043.7484
        25.0004         20.5004
  22729846.6864    5931648.55147   4625161.69347                  22729852.0764
        26.5004         28.2504
  23249435.3734   20217071.35648  15715881.35847                  23249440.4004
        31.2504         28.0004
 02  8  2 21 51 15.0060000  0  5G 1G22G11G20G25
  24286179.4514    5597953.87447   2680112.60246                  24286186.2254
        20.7504         19.7504
  25240366.7014     666208.62945    485565.81345                  25240376.4434
        11.7504         11.7504
  24051805.3264   22564838.72347  17582983.64446                  24051811.1154
        24.2504         20.5004
  22736459.9044    5966401.12647   4652241.61947                  22736465.2014
        26.2504         28.2504
  23265819.2254   20303170.05248  15782971.23847                  23265824.5454
        30.5004         28.5004
 02  8  2 21 51 30.0060000  0  5G 1G22G11G20G25
  24292034.6934    5628726.07747   2704090.97546                  24292041.3504
        20.2504         19.5004
  25242472.8424     677278.77845    494191.98246                  25242482.9824
        11.7504         12.0004
  24069593.8894   22658314.60047  17655821.93946                  24069599.6784
        25.0004         20.5004
  22743091.9984    6001255.14047   4679400.59447                  22743097.5534
        26.0004         28.2504
  23282223.8344   20389377.16548  15850145.59247                  23282229.0724
        30.5004         28.0004
 02  8  2 21 51 45.0060000  0  5G 1G22G11G20G25
  24297901.2714    5659553.50747   2728112.37146                  24297907.9044
        20.5004         19.7504
  25244588.4434     688396.22046    502855.00746                  25244598.3854
        12.2504         12.0004
  24087402.1314   22751898.71247  17728744.57646                  24087407.5334
        25.0004         20.5004
  22749744.3654    6036212.30847   4706639.94747                  22749749.8504
        26.0004         28.5004
  23298649.5294   20475694.08148  15917405.51347                  23298654.8384
        30.5004         28.2504
 02  8  2 21 52  0.0060000  0  5G 1G22G11G20G25
  24303777.5534    5690435.30647   2752176.12546                  24303783.9514
        20.5004         19.7504
  25246714.0614     699560.43546    511554.47546                  25246724.1664
        13.0004         12.0004
  24105230.7714   22845589.95147  17801750.69246                  24105236.4674
        24.5004         20.2504
  22756416.1864    6071272.02847   4733959.21147                  22756421.7054
        26.2504         28.2504
  23315096.1314   20562119.72648  15984750.16247                  23315101.3694
        30.7504         28.2504
 02  8  2 21 52 15.0060000  0  5G 1G22G11G20G25
  24309664.0844    5721368.60647   2776280.02646                  24309670.4714
        20.5004         19.7504
  25248846.2794     710769.09146    520288.57546                  25248855.0844
        12.7504         12.0004
  24123079.4284   22939385.08647  17874837.75746                  24123085.2874
        23.7504         20.0004
  22763106.7874    6106431.74347   4761356.39847                  22763112.0254
        26.2504         28.2504
  23331562.3344   20648650.95548  16052177.07747                  23331567.3034
        30.5004         28.0004
 02  8  2 21 52 30.0060000  0  5G 1G22G11G20G25
  24315560.3814    5752354.54147   2800424.93546                  24315566.9204
        20.5004         20.0004
  25250987.9044     722023.62846    529058.42546                  25250997.4474
        12.7504         12.2504
  24140947.8574   23033284.92347  17948006.41746                  24140953.5764
        23.7504         20.0004
  22769816.7324    6141692.87447   4788832.60347                  22769821.9474
        26.5004         28.5004
  23348049.0374   20735288.51148  16119686.84847                  23348053.8654
        30.5004         28.0004
 02  8  2 21 52 45.0060000  0  5G 1G22G11G20G25
  24321467.8894    5783396.33847   2824613.37746                  24321474.3814
        21.0004         19.7504
  25253139.5294     733327.79546    537866.94746                  25253148.7794
        13.5004         12.2504
  24158836.8424   23127292.14847  18021258.74646                  24158842.2094
        24.0004         20.0004
  22776546.7644    6177058.78047   4816390.45547                  22776552.0964
        26.5004         28.2504
  23364556.0614   20822035.53948  16187281.92347                  23364560.9124
        29.7504         27.5004
 02  8  2 21 53  0.0060000  0  5G 1G22G11G20G25
  24327384.6004    5814492.40047   2848844.09846                  24327391.1394
        20.0004         19.5004
  25255298.5844     744680.27746    546713.12546                  25255309.3934
        12.2504         12.2504
  24176746.1934   23221405.00947  18094593.40246                  24176751.6194
        24.2504         20.0004
  22783296.6864    6212528.14747   4844028.92947                  22783301.7834
        27.0004         28.5004
  23381083.7954   20908890.18048  16254960.85047                  23381089.0924
        29.0004         27.2504
 02  8  2 21 53 15.0060000  0  5G 1G22G11G20G25
  24333311.6624    5845638.43147   2873113.75646                  24333318.2134
        20.7504         19.5004
  25257467.3814     756077.40445    555594.06645                  25257477.8734
        11.7504         11.5004
  24194674.8504   23315618.99947  18168006.84446                  24194680.4984
        24.5004         20.0004
  22790064.8424    6248097.01847   4871744.93847                  22790069.8224
        26.2504         28.5004
  23397631.3264   20995847.93948  16322720.12347                  23397636.7174
        29.2504         27.2504
 02  8  2 21 53 30.0060000  0  5G 1G22G11G20G25
  24339249.1624    5876838.76647   2897425.73746                  24339255.3734
        21.0004         19.7504
  25259645.8344     767523.91246    564513.51746                  25259656.2914
        12.2504         12.0004
  24212623.0764   23409938.01747  18241502.13746                  24212628.5964
        24.2504         20.5004
  22796853.3184    6283770.02347   4899542.08347                  22796858.5334
        26.7504         28.5004
  23414199.5614   21082912.82748  16390562.88547                  23414204.5884
        29.7504         27.2504
 02  8  2 21 53 45.0060000  0  5G 1G22G11G20G25
  24345195.7014    5908090.82447   2921778.01146                  24345201.8894
        20.2504         19.5004
  25261833.0764     779017.48846    573469.62046                  25261842.9004
        12.7504         12.2504
  24230590.2484   23504359.24147  18315077.06546                  24230596.1434
        23.2504         19.7504
  22803660.9284    6319544.81447   4927418.55147                  22803666.0024
        26.7504         28.7504
  23430787.3504   21170082.09648  16458486.97847                  23430792.4714
        29.7504         27.2504
 02  8  2 21 54  0.0060000  0  6G 1G22G11G 2G20G25
  24351153.5064    5939395.78447   2946171.51246                  24351160.0104
        21.0004         20.0004
  25264028.9674     790559.91046    582463.79446                  25264038.5454
        12.2504         12.0004
  24248578.4364   23598883.71947  18388732.45546                  24248584.3074
        24.2504         19.5004
  26129678.6074       6327.00155
         9.5004
  22810488.2174    6355422.79947   4955375.42247                  22810493.3964
        26.5004         28.5004
  23447394.8114   21257356.68748  16526493.14047                  23447400.1194
        29.0004         27.0004
 02  8  2 21 54 15.0060000  0  6G 1G22G11G 2G20G25
  24357119.6704    5970751.30047   2970604.40846                  24357125.8814
        20.7504         20.0004
  25266235.1314     802149.15246    591494.43846                  25266245.7054
        12.5004         12.0004
  24266584.6704   23693508.64447  18462466.09546                  24266590.3074
        24.0004         19.7504
  26133294.0924      25330.30245
         8.7504
  22817334.8034    6391401.97447   4983411.14147                  22817340.0534
        26.5004         28.5004
  23464022.2714   21344733.83748  16594579.21147                  23464027.6274
        29.0004         27.0004
 02  8  2 21 54 30.0070000  0  6G 1G22G11G 2G20G25
  24363096.9254    6002162.39047   2995080.60146                  24363103.5114
        20.5004         20.0004
  25268449.2064     813789.43446    600564.88146                  25268459.7574
        12.2504         12.5004
  24284612.0344   23788242.80247  18536284.87246                  24284617.9524
        23.7504         20.0004
  26136914.2294      44359.88545
         8.5004
  22824201.9484    6427487.74147   5011529.92547                  22824206.7884
        27.2504         28.7504
  23480670.8234   21432222.18848  16662751.93747                  23480676.1444
        29.5004         27.2504
 02  8  2 21 54 45.0070000  0  6G 1G22G11G 2G20G25
  24369084.0424    6033622.09647   3019594.68946                  24369090.6984
        21.2504         20.0004
  25270673.9174     825476.73646    609671.94146                  25270683.8944
        13.0004         12.2504
  24302657.3944   23883070.48047  18610176.52246                  24302663.2654
        24.2504         20.0004
  26140539.5734      63410.80545
         8.2504
  22831087.4404    6463672.90747   5039726.15847                  22831092.4564
        26.7504         28.7504
  23497337.8624   21519807.12648  16730999.92747                  23497342.9364
        29.5004         27.5004
 02  8  2 21 55  0.0070000  0  6G 1G22G11G 2G20G25
  24375079.9874    6065133.19647   3044148.82346                  24375086.8474
        21.2504         20.0004
  25272907.4484     837213.07746    618817.21246                  25272916.6284
        13.2504         12.2504
  24320721.2844   23977998.64647  18684146.47546                  24320727.4254
        23.2504         19.7504
  26144169.3154      82485.41645
         9.2504
  22837993.1834    6499960.85647   5068002.48947                  22837998.2454
        27.2504         28.7504
  23514024.0734   21607494.76148  16799327.94447                  23514029.4994
        29.2504         27.2504
 02  8  2 21 55 15.0070000  0  6G 1G22G11G 2G20G25
  24381086.2454    6096697.66047   3068744.52946                  24381092.6904
        20.5004         20.2504
  25275149.4174     849000.80046    628002.56245                  25275158.5384
        12.2504         11.5004
  24338804.9484   24073028.74247  18758195.84646                  24338810.9834
        23.7504         19.7504
  26147804.2764     101585.98345      3969.57655                  26147817.5814
         9.5004          8.7504
  22844918.2374    6536353.80547   5096360.63547                  22844923.2414
        26.7504         28.7504
  23530730.3544   21695286.93548  16867737.41547                  23530735.6754
        29.0004         27.2504
 02  8  2 21 55 30.0070000  0  6G 1G22G11G 2G20G25
  24387102.9484    6128313.86547   3093380.56046                  24387109.3944
        21.2504         20.2504
  25277402.3704     860838.69846    637226.97445                  25277411.3514
        12.2504         11.7504
  24356908.0654   24168158.59147  18832322.95046                  24356913.8784
        24.2504         20.0004
  26151443.8944     120711.10545     18872.40045                  26151455.3944
        10.7504          9.7504
  22851863.4644    6572850.32747   5124799.48447                  22851868.4094
        26.7504         28.7504
  23547456.3154   21783181.68148  16936226.81447                  23547461.4954
        28.7504         27.0004
 02  8  2 21 55 45.0070000  0  6G 1G22G11G 2G20G25
  24393129.1444    6159980.70647   3118056.04246                  24393135.7064
        21.2504         20.2504
  25279664.8624     872726.05646    646489.95145                  25279673.7724
        12.7504         11.7504
  24375029.2694   24263386.88547  18906526.75846                  24375035.1164
        23.5004         19.5004
  26155087.6204     139860.10645     33793.81445                  26155100.2224
        10.5004          9.2504
  22858827.9644    6609449.45747   5153318.28147                  22858832.8974
        26.7504         28.7504
  23564201.1284   21871177.74248  17004795.16147                  23564206.5074
        28.5004         27.0004
 02  8  2 21 56  0.0070000  0  6G 1G22G11G 2G20G25
  24399165.1514    6191700.31747   3142772.65246                  24399172.0224
        21.0004         20.7504
  25281936.7144     884665.44746    655793.43946                  25281946.1984
        12.5004         12.0004
  24393169.5734   24358715.57147  18980808.80346                  24393175.1044
        23.5004         19.7504
  26158735.6904     159035.43445     48735.72845                  26158746.8154
        10.5004          9.5004
  22865812.4334    6646153.68647   5181918.98647                  22865817.7884
        26.7504         28.5004
  23580965.8944   21959276.98848  17073443.91347                  23580971.1904
        28.7504         27.0004
 02  8  2 21 56 15.0070000  0  6G 1G22G11G 2G20G25
  24405210.8234    6223471.58847   3167529.50946                  24405217.3624
        21.2504         20.5004
  25284217.0504     896656.27145    665137.02845                  25284226.5114
        11.7504         11.7504
  24411329.0584   24454143.03347  19055167.80646                  24411334.8824
        23.5004         19.5004
  26162390.1044     178236.27545     63697.55945                  26162402.2724
        11.0004          9.7504
  22872816.7454    6682962.22447   5210600.96347                  22872821.9364
        26.2504         28.7504
  23597750.0504   22047478.00148  17142171.96347                  23597755.3584
        28.7504         27.0004
 02  8  2 21 56 30.0070000  0  6G 1G22G11G 2G20G25
  24411267.1124    6255298.55647   3192329.76646                  24411273.1594
        21.2504         20.2504
  25286510.3624     908702.94946    674524.15046                  25286520.7724
        12.2504         12.0004
  24429507.7694   24549673.09347  19129606.76246                  24429513.6634
        23.2504         19.2504
  26166050.3474     197466.99945     78682.65145                  26166061.8354
        11.5004         10.5004
  22879842.3084    6719879.37647   5239367.58247                  22879847.5584
        26.7504         29.0004
  23614554.4094   22135784.72248  17210982.37947                  23614559.7764
        29.0004         26.7504
 02  8  2 21 56 45.0070000  0  6G 1G22G11G 2G20G25
  24417333.8314    6287179.58747   3217172.16146                  24417339.9134
        21.5004         20.5004
  25288812.7534     920804.33146    683953.88346                  25288822.7294
        13.0004         12.2504
  24447705.4484   24645303.92947  19204124.25346                  24447711.4834
        23.0004         19.2504
  26169714.6044     216726.31145     93690.04145                  26169724.3584
        11.2504         10.5004
  22886887.6044    6756903.79347   5268217.78147                  22886892.8434
        26.7504         28.7504
  23631378.5504   22224195.28148  17279873.70947                  23631383.7414
        29.7504         27.0004
 02  8  2 21 57  0.0070000  0  6G 1G22G11G 2G20G25
  24423410.7454    6319112.88247   3242055.27046                  24423416.9684
        21.5004         20.5004
  25291125.7064     932958.97946    693425.10446                  25291136.3044
        12.2504         12.0004
  24465922.5504   24741033.37447  19278718.56946                  24465928.4564
        23.5004         19.2504
  26173384.3624     236012.68445    108718.48845                  26173395.7104
        10.7504          9.7504
  22893953.2224    6794033.87447   5297150.31747                  22893958.2614
        27.0004         28.7504
  23648221.8704   22312707.44248  17348844.21847                  23648226.8514
        30.0004         27.2504
 02  8  2 21 57 15.0070000  0  6G 1G22G11G 2G20G25
  24429497.9094    6351100.38947   3266980.62446                  24429504.3314
        21.5004         20.7504
  25293449.3944     945169.30946    702939.75746                  25293459.6044
        12.7504         12.2504
  24484158.6044   24836862.83147  19353390.80346                  24484164.2764
        24.2504         19.5004
  26177059.3394     255328.46345    123769.87645                  26177072.0464
        11.0004         10.2504
  22901039.5894    6831271.70447   5326166.81247                  22901044.6044
        27.2504         28.7504
  23665084.9564   22401323.07848  17417895.35447                  23665089.9834
        30.2504         27.5004
 02  8  2 21 57 30.0070000  0  6G 1G22G11G 2G20G25
  24435594.9254    6383141.37647   3291947.65646                  24435601.5814
        21.7504         21.0004
  25295783.6044     957434.98346    712497.48546                  25295793.6984
        12.7504         12.0004
  24502413.3154   24932791.36547  19428140.26446                  24502419.0694
        23.5004         19.7504
  26180740.2374     274673.30145    138843.87845                  26180751.9134
        10.0004         10.5004
  22908145.9724    6868616.98647   5355267.03547                  22908150.8474
        27.2504         29.0004
  23681967.0894   22490041.14848  17487026.30647                  23681972.3864
        29.2504         27.2504
 02  8  2 21 57 45.0070000  0  6G 1G22G11G 2G20G25
  24441702.1124    6415236.23047   3316956.66346                  24441708.6984
        21.2504         20.7504
  25298128.0034     969756.87645    722099.05946                  25298138.0854
        11.7504         12.2504
  24520686.3084   25028819.14547  19502967.05246                  24520692.4254
        23.2504         19.5004
  26184426.8944     294047.85245    153941.03545                  26184438.9684
        10.0004         10.7504
  22915273.1904    6906070.27747   5384451.41547                  22915278.0544
        27.2504         29.0004
  23698869.3394   22578861.81148  17556237.19247                  23698874.8354
        30.0004         27.2504
 02  8  2 21 58  0.0070000  0  6G 1G22G11G 2G20G25
  24447820.1514    6447386.68647   3342008.98746                  24447826.8314
        21.5004         20.5004
  25300483.8624     982137.14946    731746.11746                  25300493.4874
        12.5004         12.2504
  24538978.6984   25124947.50947  19577872.22046                  24538984.5584
        23.0004         19.2504
  26188120.7534     313454.22345    169063.01845                  26188131.9014
        10.5004         10.7504
  22922421.3004    6943633.55247   5413721.50447                  22922426.1284
        27.0004         29.0004
  23715791.4174   22667786.44048  17625529.09947                  23715796.4214
        30.7504         27.5004
 02  8  2 21 58 15.0070000  0  6G 1G22G11G 2G20G25
  24453947.8784    6479587.12047   3367100.26146                  24453954.5934
        21.5004         20.7504
  25302850.3234     994570.66946    741434.69246                  25302860.1594
        13.5004         12.5004
  24557289.7534   25221170.72947  19652851.28946                  24557295.7414
        23.0004         19.2504
  26191817.6754     332887.12145    184205.65245                  26191828.9994
        10.0004         10.5004
  22929588.8394    6981301.65647   5443073.26947                  22929593.8544
        26.7504         28.7504
  23732731.4794   22756809.24048  17694897.50447                  23732736.5424
        29.7504         27.2504
 02  8  2 21 58 30.0070000  0  6G 1G22G11G 2G20G25
  24460085.8154    6511842.43647   3392234.29546                  24460092.3084
        21.5004         20.7504
  25305227.5584    1007062.65546    751168.77546                  25305237.4644
        14.0004         12.5004
  24575619.5194   25317493.29247  19727907.78046                  24575625.2614
        23.2504         19.2504
  26195521.0504     352351.65345    199372.94745                  26195533.2294
         9.5004         10.5004
  22936777.8474    7019079.52547   5472510.57147                  22936783.0034
        26.7504         28.7504
  23749691.7374   22845934.82348  17764345.99647                  23749697.0114
        30.0004         27.2504
 02  8  2 21 58 45.0070000  0  6G 1G22G11G 2G20G25
  24466234.0194    6544153.50447   3417411.77246                  24466240.8904
        21.0004         21.0004
  25307615.6904    1019614.35946    760949.41646                  25307624.9404
        14.0004         13.0004
  24593967.9484   25413915.52147  19803041.93346                  24593973.7264
        23.0004         19.2504
  26199232.9644     371849.18145    214565.94345                  26199243.4794
        10.5004         10.7504
  22943987.7924    7056968.43747   5502034.40247                  22943992.8904
        26.7504         28.7504
  23766671.0034   22935164.01748  17833875.23047                  23766676.4174
        29.2504         27.2504
 02  8  2 21 59  0.0070000  0  6G 1G22G11G 2G20G25
  24472392.2144    6576513.76847   3442627.58946                  24472399.0114
        21.5004         20.7504
  25310014.4724    1032219.78046    770771.91746                  25310024.2614
        14.2504         12.7504
  24612334.6984   25510430.54747  19878248.38746                  24612340.6044
        23.7504         19.5004
  26202947.1284     391373.49145    229779.82745                  26202958.2064
        11.0004         11.5004
  22951217.8004    7094962.03647   5531639.80847                  22951222.8514
        27.0004         29.0004
  23783669.2694   23024489.85348  17903479.75947                  23783675.0934
        29.5004         27.5004
 02  8  2 21 59 15.0070000  0  6G 1G22G11G 2G20G25
  24478560.5114    6608927.64347   3467885.17846                  24478566.5814
        22.0004         20.7504
  25312423.9484    1044883.78546    780640.06346                  25312432.6714
        13.5004         12.7504
  24630719.1044   25607042.59947  19953530.46146                  24630724.5654
        23.7504         19.2504
  26206668.3004     410929.29045    245018.22145                  26206679.0734
        11.0004         11.0004
  22958469.0814    7133064.97947   5561330.41347                  22958474.1084
        27.2504         29.0004
  23800686.9014   23113916.46248  17973162.81447                  23800692.4794
        30.2504         27.7504
 02  8  2 21 59 30.0070000  0  6G 1G22G11G 2G20G25
  24484739.3544    6641394.94147   3493184.39646                  24484745.2964
        22.7504         21.0004
  25314845.3944    1057606.58446    790554.02146                  25314853.7884
        13.5004         12.2504
  24649122.1514   25703750.94947  20028887.55346                  24649127.8944
        23.7504         19.2504
  26210396.6984     430516.68445    260281.25345                  26210407.9404
        11.5004         11.2504
  22965740.8234    7171277.32048   5591106.26647                  22965745.6404
        28.0004         29.2504
  23817723.5194   23203443.55448  18042924.17347                  23817728.7924
        30.2504         27.7504
 02  8  2 21 59 45.0070000  0  6G 1G22G11G 2G20G25
  24490927.4794    6673915.82647   3518525.37846                  24490933.6324
        22.7504         20.7504
  25317278.1514    1070388.75046    800514.25646                  25317287.3434
        14.0004         12.7504
  24667543.6514   25800555.46747  20104319.59146                  24667549.1594
        23.7504         19.2504
  26214129.2614     450136.15845    275569.28045                  26214139.7414
        11.0004         11.2504
  22973032.9794    7209599.49247   5620967.70547                  22973037.5264
        27.7504         29.0004
  23834778.9484   23293070.96048  18112763.69947                  23834784.3394
        29.7504         27.5004
 02  8  2 22  0  0.0070000  0  6G 1G22G11G 2G20G25
  24497124.6124    6706484.81347   3543903.83146                  24497131.1984
        21.2504         21.0004
  25319719.8004    1083225.14046    810516.72746                  25319729.2374
        13.2504         13.2504
  24685982.5734   25897450.42147  20179822.10046                  24685988.0814
        23.5004         19.2504
  26217867.4644     469782.50645    290878.24245                  26217879.1864
        11.0004         11.2504
  22980345.0114    7248026.12847   5650910.53647                  22980349.7694
        27.0004         29.0004
  23851852.5654   23382792.99648  18182676.95847                  23851857.7334
        30.5004         27.5004
 02  8  2 22  0 15.0070000  0  6G 1G22G11G 2G20G25
  24503333.0114    6739111.20247   3569327.01346                  24503339.4444
        21.5004         21.2504
  25322174.6204    1096125.62246    820569.16446                  25322184.0694
        13.5004         13.5004
  24704439.6204   25994444.75747  20255402.03646                  24704445.6554
        23.2504         19.2504
  26221613.0894     489465.45945    306215.71545                  26221624.3084
        11.2504         11.5004
  22987679.3624    7286566.82947   5680942.25347                  22987684.3544
        27.2504         29.0004
  23868945.7764   23472618.47248  18252670.82347                  23868950.9564
        30.7504         27.7504
 02  8  2 22  0 30.0070000  0  6G 1G22G11G 2G20G25
  24509551.8864    6771790.19047   3594791.18546                  24509558.0384
        21.7504         21.2504
  25324640.9334    1109085.69046    830667.99946                  25324650.0544
        13.2504         13.2504
  24722914.4254   26091533.33747  20331055.43846                  24722920.1324
        22.5004         19.0004
  26225364.2064     509180.46545    321578.17045                  26225376.2694
        11.0004         11.0004
  22995034.0504    7325217.06347   5711059.32547                  22995039.1714
        26.7504         28.7504
  23886057.8084   23562542.30948  18322741.33547                  23886062.9174
        31.0004         27.7504
 02  8  2 22  0 45.0070000  0  6G 1G22G11G 2G20G25
  24515781.5034    6804522.37647   3620296.79046                  24515787.3864
        21.5004         19.0004
  25327118.3704    1122106.39745    840814.19045                  25327127.8194
        10.5004          9.7504
  24741408.2224   26188716.46246  20406782.51146                  24741414.4794
        19.5004         17.0004
  26229122.9564     528928.52745    336966.49145                  26229133.4834
         7.5004          7.2504
  23002410.1124    7363977.72347   5741262.43547                  23002415.2694
        23.2504         26.0004
  23903188.3474   23652564.88747  18392888.83346                  23903193.8434
        24.2504         22.2504
 02  8  2 22  1  0.0080000  0  6G 1G22G11G 2G20G25
  24522020.4924    6837309.45347   3645845.20246                  24522026.2584
        21.5004         20.0004
  25329607.9374    1135188.64145    851008.13545                  25329618.0784
        11.2504         10.5004
  24759920.6254   26285999.66446  20482587.51546                  24759926.9654
        19.7504         17.5004
  26232887.6644     548710.82345    352381.21545                  26232899.0704
         9.5004          9.2504
  23009807.5314    7402851.23447   5771553.46247                  23009812.3594
        25.2504         27.0004
  23920339.1334   23742691.82847  18463117.57246                  23920344.1844
        21.0004         21.5004
 02  8  2 22  1 15.0080000  0  6G 1G22G11G 2G20G25
  24528269.1024    6870148.06647   3671433.74846                  24528275.0664
        21.7504         19.7504
  25332108.9844    1148332.20345    861249.98645                  25332118.7384
        10.5004         11.5004
  24778449.8284   26383370.80247  20558461.07446                  24778455.8164
        21.5004         18.0004
  26236657.7664     568526.06445    367821.90345                  26236670.3444
         8.2504          8.2504
  23017225.6874    7441833.54947   5801929.30147                  23017230.3874
        24.5004         27.2504
  23937507.4144   23832911.69447  18533418.74946                  23937512.4414
        23.2504         21.7504
 02  8  2 22  1 30.0080000  0  6G 1G22G11G 2G20G25
  24534528.7424    6903041.32347   3697064.88446                  24534535.0354
        21.5004         20.0004
  25334621.9774    1161539.17245    871541.23445                  25334631.7894
        11.2504         11.0004
  24796997.0004   26480836.96946  20634408.67946                  24797003.7854
        19.7504         17.7504
  26240436.3204     588376.83745    383290.13845                  26240446.3204
         9.5004          9.2504
  23024664.9924    7480928.51047   5832392.90847                  23024669.9144
        25.2504         27.2504
  23954694.4224   23923231.22047  18603797.59146                  23954699.6724
        21.5004         21.2504
 02  8  2 22  1 45.0080000  0  6G 1G22G11G 2G20G25
  24540797.6644    6935989.13946   3722738.55146                  24540803.8054
        18.7504         17.7504
  25337147.4454    1174810.00446    881882.23446                  25337156.9064
        13.2504         12.0004
  24815562.0164   26578397.71246  20710430.00746                  24815568.8484
        18.5004         16.0004
  26244219.7664     608263.39545    398786.26845                  26244229.8594
        10.5004          9.7504
  23032126.1254    7520136.32747   5862944.46347                  23032131.0234
        24.5004         26.0004
  23971901.0234   24013650.03547  18674253.77646                  23971906.3674
        27.0004         23.2504
 02  8  2 22  2  0.0080000  0  6G 1G22G11G 2G20G25
  24547078.1414    6968992.87347   3748455.74546                  24547084.3404
        21.7504         21.2504
  25339684.9374    1188146.23246    892274.17646                  25339694.9264
        13.7504         14.0004
  24834145.4064   26676053.97447  20786525.70246                  24834151.8164
        22.0004         18.5004
  26248010.4774     628187.30845    414311.53945                  26248021.2384
        10.7504         11.2504
  23039608.5314    7559458.45847   5893585.10147                  23039613.7234
        26.5004         29.0004
  23989125.8124   24104169.05348  18744788.05147                  23989130.8524
        30.2504         27.5004
 02  8  2 22  2 15.0080000  0  6G 1G22G11G 2G20G25
  24553369.2424    7002051.57247   3774215.80146                  24553375.7344
        22.0004         21.5004
  25342236.0784    1201547.66546    902716.95546                  25342245.4804
        15.2504         14.2504
  24852747.0314   26773804.60647  20862694.97546                  24852753.5704
        22.0004         18.7504
  26251808.3754     648148.03545    429865.45445                  26251820.1444
        11.2504         11.7504
  23047113.1874    7598894.41147   5924314.41247                  23047118.1914
        26.7504         28.7504
  24006369.8834   24194787.16148  18815399.55147                  24006375.0984
        29.2504         27.2504
 02  8  2 22  2 30.0080000  0  6G 1G22G11G 2G20G25
  24559670.6484    7035166.80547   3800019.90446                  24559676.9774
        21.7504         21.2504
  25344798.3204    1215016.10446    913211.92346                  25344808.1804
        14.5004         14.5004
  24871366.2274   26871650.67647  20938938.61246                  24871372.7424
        22.0004         18.7504
  26255614.4144     668147.34245    445449.44946                  26255626.4414
        11.5004         12.0004
  23054639.2664    7638445.87847   5955133.74447                  23054644.1764
        26.5004         28.5004
  24023632.8124   24285505.74048  18886089.34047                  24023638.2034
        29.0004         27.0004
 02  8  2 22  2 45.0080000  0  6G 1G22G11G 2G20G25
  24565982.6804    7068337.45647   3825867.18446                  24565989.1024
        21.7504         21.5004
  25347374.1874    1228550.96946    923758.66846                  25347383.5434
        14.2504         14.0004
  24890004.2034   26969590.82347  21015255.55246                  24890010.8714
        22.7504         19.0004
  26259427.1094     688184.54345    461062.97645                  26259439.2074
        11.5004         11.7504
  23062187.4694    7678111.96647   5986042.38947                  23062192.4264
        26.2504         28.7504
  24040915.1254   24376323.56348  18956856.46247                  24040920.7384
        28.7504         27.0004
 02  8  2 22  3  0.0080000  0  6G 1G22G11G 2G20G25
  24572305.1484    7101560.49447   3851755.29646                  24572311.8054
        22.2504         21.5004
  25349961.3914    1242149.56646    934355.06446                  25349970.7814
        14.2504         14.2504
  24908658.5554   27067621.68447  21091643.17946                  24908665.0354
        22.0004         19.0004
  26263247.4144     708256.93446    476703.91745                  26263258.0124
        12.2504         11.7504
  23069757.1954    7717889.90047   6017038.18247                  23069762.2344
        26.7504         28.7504
  24058215.2034   24467237.20448  19027698.23747                  24058220.9104
        28.2504         26.5004
 02  8  2 22  3 15.0080000  0  6G 1G22G11G 2G20G25
  24578638.0234    7134839.68847   3877687.14846                  24578644.6914
        22.2504         21.5004
  25352561.6874    1255816.17246    945004.47246                  25352570.7274
        14.0004         13.7504
  24927331.0234   27165746.70947  21168104.18646                  24927337.8094
        21.7504         18.5004
  26267074.0704     728368.73246    492375.56746                  26267084.3874
        12.5004         12.0004
  23077348.7974    7757783.72047   6048124.27547                  23077353.8244
        27.0004         29.0004
  24075534.4844   24558250.20448  19098617.44247                  24075540.3094
        28.2504         26.2504
 02  8  2 22  3 30.0080000  0  6G 1G22G11G 2G20G25
  24584981.6174    7168175.40047   3903663.04446                  24584988.1214
        22.2504         21.5004
  25355175.8054    1269551.54646    955707.44846                  25355184.7854
        14.2504         14.0004
  24946021.3594   27263965.86247  21244638.53446                  24946028.2774
        21.2504         18.5004
  26270909.1644     748520.53646    508078.38445                  26270919.8554
        12.5004         11.7504
  23084962.5234    7797794.11047   6079301.20347                  23084967.4694
        26.7504         29.0004
  24092872.5004   24649362.70448  19169614.18047                  24092878.4534
        28.0004         26.2504
 02  8  2 22  3 45.0080000  0  6G 1G22G11G 2G20G25
  24591335.2974    7201564.92747   3929680.88146                  24591342.0594
        22.2504         21.7504
  25357802.2814    1283353.46746    966462.27846                  25357811.4614
        14.7504         14.5004
  24964729.1804   27362276.07547  21321243.82546                  24964735.8124
        21.2504         18.7504
  26274750.9844     768709.99445    523810.56045                  26274762.2974
        11.5004         11.7504
  23092597.8914    7837918.51847   6110566.97947                  23092602.7074
        27.0004         29.0004
  24110228.9064   24740571.69447  19240686.10047                  24110234.7074
        27.7504         26.2504
 02  8  2 22  4  0.0080000  0  6G 1G22G11G 2G20G25
  24597698.7584    7235009.07047   3955741.27346                  24597705.2734
        21.7504         21.7504
  25360441.0164    1297223.07946    977269.86646                  25360449.5984
        14.5004         14.7504
  24983454.8674   27460677.86747  21397920.48746                  24983461.8554
        21.5004         18.7504
  26278599.6024     788938.23045    539572.95245                  26278610.6914
        11.5004         11.7504
  23100255.2114    7878158.02447   6141922.44447                  23100260.0164
        27.0004         29.0004
  24127603.9694   24831877.69348  19311833.61847                  24127609.6764
        28.5004         26.2504
 02  8  2 22  4 15.0080000  0  6G 1G22G11G 2G20G25
  24604074.1094    7268508.33247   3981844.61646                  24604080.3914
        22.5004         21.7504
  25363093.5864    1311161.42746    988131.01046                  25363102.4734
        15.0004         14.7504
  25002197.3914   27559171.33347  21474668.59446                  25002203.8124
        21.5004         18.5004
  26282456.2274     809206.01745    555366.15346                  26282466.7774
        11.5004         12.0004
  23107934.6804    7918513.37247   6173368.16647                  23107939.7074
        26.7504         28.7504
  24144997.9614   24923280.93948  19383056.90747                  24145003.2814
        29.0004         26.5004
 02  8  2 22  4 30.0080000  0  6G 1G22G11G 2G20G25
  24610459.9374    7302064.37947   4007992.20146                  24610466.1254
        23.2504         21.7504
  25365759.3594    1325170.52446    999047.27646                  25365768.9844
        15.0004         14.5004
  25020957.9454   27657757.88247  21551489.20546                  25020964.5784
        21.5004         18.7504
  26286320.9374     829515.44345    571191.79745                  26286332.2154
        11.0004         11.5004
  23115636.4064    7958986.55247   6204905.71547                  23115641.2934
        27.0004         29.2504
  24162409.9844   25014782.97448  19454357.18447                  24162415.2694
        29.0004         26.5004
 02  8  2 22  4 45.0080000  0  6G 1G22G11G 2G20G25
  24616856.4454    7335678.77747   4034185.24646                  24616862.7974
        23.0004         22.0004
  25368439.5394    1339252.45546   1010020.29846                  25368448.5904
        15.5004         14.5004
  25039736.4534   27756438.62947  21628383.23946                  25039742.7934
        21.5004         18.5004
  26290193.8984     849868.37445    587051.34945                  26290205.3054
        11.5004         11.5004
  23123361.1484    7999579.23847   6236536.37947                  23123366.0004
        27.2504         29.0004
  24179841.2894   25106384.96648  19525735.34747                  24179846.6334
        28.5004         26.2504
 02  8  2 22  5  0.0080000  0  6G 1G22G11G 2G20G25
  24623263.2424    7369348.05847   4060421.08246                  24623269.6294
        23.0004         22.0004
  25371132.2274    1353404.06646   1021047.61346                  25371140.6214
        14.7504         14.5004
  25058532.0944   27855209.85947  21705347.76946                  25058538.2114
        21.7504         18.0004
  26294074.2194     870261.63945    602942.31646                  26294084.7344
        11.2504         12.0004
  23131107.6254    8040288.24047   6268257.68047                  23131112.3014
        27.0004         29.0004
  24197290.5944   25198083.20348  19597188.50447                  24197296.0194
        28.0004         26.0004
 02  8  2 22  5 15.0080000  0  6G 1G22G11G 2G20G25
  24629681.4144    7403074.45147   4086701.40646                  24629687.9414
        23.0004         21.7504
  25373838.2664    1367628.03046   1032131.32146                  25373847.3164
        13.5004         14.5004
  25077345.2034   27954073.35047  21782384.19746                  25077351.0864
        21.7504         18.2504
  26297963.7114     890697.79145    618866.71246                  26297975.1874
        11.7504         12.0004
  23138877.0164    8081115.98047   6300071.50247                  23138881.8324
        27.0004         29.0004
  24214759.1094   25289879.73248  19668718.25247                  24214764.6524
        28.2504         25.7504
 02  8  2 22  5 30.0080000  0  6G 1G22G11G 2G20G25
  24636109.5084    7436856.44947   4113025.06046                  24636115.7194
        22.7504         21.7504
  25376558.6564    1381923.29346   1043270.57846                  25376568.2584
        14.5004         14.2504
  25096174.9844   28053027.42647  21859491.22446                  25096181.4534
        20.5004         18.2504
  26301859.8984     911175.62745    634823.59746                  26301871.0004
        11.7504         12.2504
  23146668.3364    8122061.26947   6331976.92647                  23146673.2344
        26.7504         29.0004
  24232245.6724   25381772.64847  19740323.10846                  24232251.0984
        27.7504         25.5004
 02  8  2 22  5 45.0080000  0  6G 1G22G11G 2G20G25
  24642549.3674    7470697.59047   4139394.79946                  24642555.2854
        23.0004         21.7504
  25379293.6254    1396293.92746   1054468.56246                  25379302.7694
        15.2504         14.7504
  25115023.7194   28152075.17947  21936671.22146                  25115030.1174
        21.2504         18.0004
  26305765.5314     931699.13946    650816.05746                  26305776.4104
        12.2504         12.0004
  23154483.6334    8163127.93147   6363976.93047                  23154488.3674
        27.7504         29.2504
  24249751.2584   25473765.32247  19812005.70046                  24249756.6954
        27.2504         25.2504
 02  8  2 22  6  0.0080000  0  6G 1G22G11G 2G20G25
  24648999.2274    7504592.80947   4165806.68546                  24649005.2974
        22.5004         21.7504
  25382041.4374    1410735.12946   1065721.52946                  25382050.5234
        15.2504         14.7504
  25133888.8364   28251211.15747  22013919.97846                  25133895.6804
        21.7504         18.7504
  26309678.8364     952263.43146    666840.29746                  26309689.8324
        12.7504         12.5004
  23162320.0554    8204310.97347   6396067.61247                  23162324.8244
        27.0004         29.0004
  24267274.7034   25565852.35647  19883761.81546                  24267280.2114
        27.2504         25.2504
 02  8  2 22  6 15.0080000  0  6G 1G22G11G 2G20G25
  24655460.2114    7538544.49947   4192262.56546                  24655466.5624
        22.5004         22.0004
  25384803.4534    1425249.80246   1077031.75346                  25384812.4224
        16.0004         15.2504
  25152771.4224   28350437.43047  22091239.09746                  25152778.4224
        21.7504         18.5004
  26313600.5084     972871.30846    682898.49646                  26313611.4454
        13.0004         12.5004
  23170179.7194    8245613.15447   6428251.13647                  23170184.5124
        27.0004         29.0004
  24284816.9144   25658035.97447  19955593.18646                  24284822.5624
        27.5004         25.2504
 02  8  2 22  6 30.0080000  0  6G 1G22G11G 2G20G25
  24661931.1254    7572550.90847   4218761.08046                  24661937.3244
        22.0004         21.7504
  25387579.9304    1439836.61546   1088398.17846                  25387588.5004
        17.0004         15.7504
  25171670.1644   28449751.95647  22168626.96746                  25171676.8794
        21.2504         18.2504
  26317530.2194     993521.35046    698989.57546                  26317541.0394
        13.0004         12.2504
  23178061.6954    8287033.03147   6460526.36847                  23178066.6524
        27.0004         29.0004
  24302377.0234   25750314.19248  20027498.28246                  24302382.5314
        28.2504         25.5004
 02  8  2 22  6 45.0080000  0  6G 1G22G11G 2G20G25
  24668413.1564    7606614.34047   4245304.03146                  24668419.5784
        22.2504         21.7504
  25390368.9614    1454498.34346   1099822.97646                  25390377.3674
        15.7504         15.5004
  25190586.0944   28549156.71847  22246085.16146                  25190592.5044
        21.2504         17.7504
  26321468.2504    1014216.22146    715115.56446                  26321478.8364
        13.2504         12.7504
  23185966.4614    8328573.25147   6492895.37747                  23185971.5004
        27.2504         28.7504
  24319955.1804   25842689.05648  20099478.67347                  24319960.6174
        28.5004         25.7504
 02  8  2 22  7  0.0080000  0  6G 1G22G11G 2G20G25
  24674905.9844    7640733.11047   4271890.10446                  24674912.1484
        22.7504         21.7504
  25393173.1874    1469233.72346   1111305.17046                  25393181.4774
        16.0004         15.5004
  25209518.5314   28648649.73347  22323612.13146                  25209525.0354
        20.2504         17.7504
  26325414.5084    1034954.55446    731275.42046                  26325424.8484
        13.7504         12.5004
  23193893.9224    8370232.18947   6525356.89147                  23193898.7854
        27.0004         29.0004
  24337551.8124   25935158.59348  20171532.84047                  24337557.0864
        28.5004         26.0004
 02  8  2 22  7 15.0080000  0  6G 1G22G11G 2G20G25
  24681409.3204    7674908.84947   4298520.57046                  24681415.3914
        23.0004         22.0004
  25395991.6024    1484044.85746   1122846.39946                  25395999.9144
        15.7504         15.0004
  25228469.0624   28748232.11247  22401208.72046                  25228475.1564
        21.0004         17.7504
  26329369.2894    1055738.26646    747470.64446                  26329379.2424
        13.2504         12.5004
  23201844.3444    8412011.68847   6557912.35247                  23201849.2544
        27.0004         29.0004
  24355166.3524   26027724.12448  20243661.80747                  24355171.7424
        28.2504         26.0004
 02  8  2 22  7 30.0090000  0  6G 1G22G11G 2G20G25
  24687924.3334    7709145.22947   4325198.28446                  24687930.6384
        23.0004         22.5004
  25398824.7084    1498934.52546   1134448.82746                  25398833.0444
        15.5004         14.7504
  25247437.3804   28847911.64847  22478881.02046                  25247443.6614
        20.5004         17.2504
  26333333.0364    1076570.54746    763703.68946                  26333343.7744
        12.5004         12.2504
  23209818.6144    8453916.27247   6590565.27347                  23209823.4664
        27.5004         29.2504
  24372800.4194   26120393.03348  20315871.33447                  24372806.0324
        28.0004         25.7504
 02  8  2 22  7 45.0090000  0  6G 1G22G11G 2G20G25
  24694449.5834    7743433.74747   4351916.63346                  24694455.8764
        23.0004         22.0004
  25401672.3104    1513897.20246   1146108.12746                  25401680.7514
        16.0004         15.0004
  25266421.1454   28947670.71047  22556615.29246                  25266427.6854
        21.0004         17.7504
  26337305.6454    1097444.89346    779969.54146                  26337316.7944
        12.7504         12.2504
  23217814.5834    8495936.64047   6623308.42547                  23217819.6104
        27.0004         29.2504
  24390451.4814   26213148.81248  20388148.54746                  24390457.0014
        28.0004         25.5004
 02  8  2 22  8  0.0090000  0  6G 1G22G11G 2G20G25
  24700984.9034    7777780.61747   4378680.44546                  24700991.4424
        22.2504         22.2504
  25404534.3884    1528938.31446   1157828.54546                  25404543.1224
        16.0004         15.5004
  25285421.4664   29047519.50547  22634419.49246                  25285427.7004
        20.7504         17.2504
  26341286.6614    1118367.00446    796272.59146                  26341297.7514
        13.0004         12.2504
  23225834.4504    8538079.68147   6656147.16647                  23225839.4074
        27.7504         29.2504
  24408120.7474   26306001.25648  20460501.08446                  24408126.2554
        28.0004         25.5004
 02  8  2 22  8 15.0090000  0  6G 1G22G11G 2G20G25
  24707531.1454    7812181.44247   4405486.30046                  24707537.7434
        22.7504         22.0004
  25407410.4504    1544053.77146   1169606.90546                  25407419.0794
        16.0004         15.5004
  25304438.0524   29147453.33447  22712289.95846                  25304444.5324
        20.2504         17.7504
  26345276.5524    1139332.87046    812609.74246                  26345287.5364
        13.0004         12.2504
  23233875.9584    8580341.27247   6689078.28047                  23233881.0674
        26.7504         29.0004
  24425807.4894   26398945.57748  20532925.21546                  24425813.0794
        28.0004         25.5004
 02  8  2 22  8 30.0090000  0  6G 1G22G11G 2G20G25
  24714087.8724    7846637.53447   4432335.22646                  24714094.5174
        22.5004         22.2504
  25410301.5914    1559245.40746   1181444.62646                  25410310.7704
        15.7504         15.2504
  25323471.7004   29247473.13947  22790227.39746                  25323478.8524
        20.5004         18.0004
  26349274.3024    1160344.10946    828982.24246                  26349285.5324
        12.7504         12.0004
  23241941.5204    8622723.00547   6722103.01247                  23241946.4194
        27.2504         29.2504
  24443511.6384   26491982.80047  20605421.73646                  24443517.2514
        27.5004         25.5004
 02  8  2 22  8 45.0090000  0  6G 1G22G11G 2G20G25
  24720655.2944    7881148.43347   4459226.85746                  24720661.6104
        23.0004         22.2504
  25413207.0284    1574513.12746   1193341.63646                  25413216.2784
        15.7504         15.0004
  25342520.8724   29347578.14147  22868231.23446                  25342527.7674
        20.5004         18.0004
  26353281.7554    1181400.57846    845389.96746                  26353292.6454
        13.2504         12.2504
  23250029.0134    8665224.58247   6755221.12847                  23250033.8064
        27.2504         29.2504
  24461233.7784   26585112.39648  20677990.22746                  24461239.6384
        28.0004         25.2504
 02  8  2 22  9  0.0090000  0  6G 1G22G11G 2G20G25
  24727232.8644    7915713.10247   4486160.38346                  24727238.8994
        23.5004         21.7504
  25416126.6614    1589856.39046   1205297.49746                  25416135.6654
        16.2504         15.5004
  25361586.1694   29447766.93847  22946300.36546                  25361593.1924
        21.0004         18.0004
  26357296.6454    1202501.47646    861832.34346                  26357306.6924
        13.0004         12.2504
  23258139.3494    8707845.18347   6788431.99547                  23258144.1884
        27.0004         29.2504
  24478973.2084   26678333.01747  20750629.65446                  24478978.7164
        27.7504         25.0004
 02  8  2 22  9 15.0090000  0  6G 1G22G11G 2G20G25
  24733820.9814    7950334.07247   4513137.78146                  24733826.9354
        23.5004         22.2504
  25419060.4814    1605278.11246   1217314.49446                  25419068.9704
        15.2504         15.5004
  25380667.4424   29548041.66047  23024436.45346                  25380674.4894
        20.0004         18.0004
  26361320.8804    1223649.73946    878311.59446                  26361330.4354
        13.2504         12.2504
  23266273.0284    8750587.62147   6821737.79247                  23266278.0094
        27.0004         29.0004
  24496730.2944   26771647.05547  20823341.87246                  24496735.9664
        27.2504         25.0004
 02  8  2 22  9 30.0090000  0  6G 1G22G11G 2G20G25
  24740419.3724    7985009.40447   4540157.54346                  24740425.6534
        23.2504         22.5004
  25422010.6454    1620776.84046   1229391.48746                  25422019.1454
        16.7504         15.7504
  25399765.7554   29648400.01847  23102637.70746                  25399772.4814
        20.5004         17.7504
  26365353.9354    1244843.73646    894826.51145                  26365363.3604
        13.2504         11.7504
  23274429.4894    8793450.13447   6855137.16147                  23274434.3764
        27.2504         29.2504
  24514504.5204   26865052.15948  20896125.04946                  24514509.9114
        28.0004         24.7504
 02  8  2 22  9 45.0090000  0  6G 1G22G11G 2G20G25
  24747028.5134    8019740.78747   4567220.97746                  24747034.8174
        23.2504         22.2504
  25424974.8494    1636354.74146   1241530.18146                  25424983.6774
        16.2504         16.0004
  25418879.2474   29748843.44147  23180905.24646                  25418886.0204
        20.5004         18.0004
  26369395.8174    1266085.55946    911378.68846                  26369406.3214
        13.0004         12.5004
  23282609.3414    8836434.79147   6888631.70847                  23282614.1344
        27.2504         29.2504
  24532297.1144   26958549.90248  20968980.41446                  24532302.3994
        28.7504         25.5004
 02  8  2 22 10  0.0090000  0  6G 1G22G11G 2G20G25
  24753648.3884    8054528.42247   4594328.24946                  24753654.5994
        23.2504         22.2504
  25427954.4114    1652012.33946   1253730.97346                  25427962.5364
        16.0004         15.5004
  25438008.9584   29849371.88347  23259239.03846                  25438015.9234
        20.0004         17.7504
  26373447.2314    1287375.70646    927968.50646                  26373457.0094
        13.2504         12.5004
  23290812.4274    8879542.04747   6922221.78347                  23290817.1734
        27.7504         29.5004
  24550106.1854   27052140.18348  21041907.88846                  24550111.5994
        28.2504         25.5004
 02  8  2 22 10 15.0090000  0  6G 1G22G11G 2G20G25
  24760278.4894    8089370.17047   4621477.68146                  24760284.7004
        23.5004         22.5004
  25430948.3884    1667747.98546   1265992.58346                  25430956.4774
        15.7504         15.5004
  25457154.5204   29949982.66947  23337636.98846                  25457161.6384
        20.0004         18.0004
  26377506.4504    1308712.32046    944594.54446                  26377517.4934
        12.7504         12.2504
  23299038.3494    8922769.96147   6955905.87647                  23299043.1654
        27.2504         29.5004
  24567933.5524   27145820.57748  21114905.57746                  24567939.0134
        28.7504         25.5004
 02  8  2 22 10 30.0090000  0  6G 1G22G11G 2G20G25
  24766919.5524    8124268.13947   4648670.92446                  24766925.5754
        23.7504         22.5004
  25433957.8884    1683564.21146   1278316.98746                  25433966.4584
        15.7504         16.0004
  25476316.3334   30050677.61046  23416100.51346                  25476323.2394
        19.7504         17.5004
  26381576.6224    1330097.94546    961258.76446                  26381586.7044
        13.2504         12.5004
  23307287.8024    8966120.76947   6989685.72747                  23307292.4664
        27.2504         29.2504
  24585777.6304   27239592.96348  21187974.95846                  24585782.8684
        28.5004         25.2504
 02  8  2 22 10 45.0090000  0  6G 1G22G11G 2G20G25
  24773571.8884    8159226.01947   4675910.85546                  24773577.9234
        24.0004         22.7504
  25436983.9034    1699465.07546   1290707.33646                  25436992.8724
        15.7504         16.0004
  25495494.7554   30151459.97547  23494632.16446                  25495501.5174
        20.0004         17.5004
  26385656.7244    1351536.49646    977964.18846                  26385666.7944
        13.7504         12.5004
  23315561.4424    9009598.40147   7023564.41047                  23315566.3174
        27.5004         29.2504
  24603640.0524   27333460.62748  21261118.57346                  24603645.3254
        28.2504         25.2504
 02  8  2 22 11  0.0090000  0  6G 1G22G11G 2G20G25
  24780234.0054    8194236.32947   4703191.64546                  24780240.2274
        23.7504         22.7504
  25440024.8494    1715443.53146   1303158.14146                  25440033.0324
        16.7504         15.7504
  25514688.5054   30252322.10546  23573225.97546                  25514695.3884
        19.7504         17.5004
  26389744.6614    1373020.81146    994705.31746                  26389754.7904
        13.2504         12.7504
  23323857.4194    9053195.65447   7057536.30047                  23323862.1184
        27.0004         29.2504
  24621519.1854   27427415.83048  21334330.40446                  24621524.5874
        28.2504         25.5004
 02  8  2 22 11 15.0090000  0  6G 1G22G11G 2G20G25
  24786905.8724    8229298.85547   4730513.11646                  24786912.2594
        23.5004         22.5004
  25443079.8884    1731499.83546   1315669.61346                  25443088.4814
        16.2504         16.0004
  25533896.5204   30353263.34546  23651881.42446                  25533903.5324
        19.7504         17.5004
  26393841.3024    1394550.98446   1011482.18146                  26393851.4544
        13.0004         12.5004
  23332176.8104    9096912.47347   7091601.35647                  23332181.5324
        27.7504         29.5004
  24639414.7704   27521458.08348  21407610.06446                  24639420.2674
        28.7504         25.5004
 02  8  2 22 11 30.0090000  0  6G 1G22G11G 2G20G25
  24793588.6614    8264418.14547   4757878.80446                  24793594.9074
        22.7504         22.2504
  25446150.9664    1747638.86346   1328245.54546                  25446159.4664
        16.2504         16.5004
  25553121.3644   30454287.69647  23730601.62546                  25553128.0794
        20.0004         17.2504
  26397948.1774    1416131.88546   1028298.54746                  26397958.2474
        13.0004         12.7504
  23340519.3414    9140753.66647   7125763.32847                  23340524.0404
        27.2504         29.2504
  24657327.7554   27615591.74947  21480960.95546                  24657333.3804
        27.7504         25.2504
 02  8  2 22 11 45.0090000  0  6G 1G22G11G 2G20G25
  24800281.8174    8299590.15147   4785285.58146                  24800288.1104
        23.0004         22.5004
  25449236.9114    1763857.28946   1340883.33446                  25449245.3294
        15.7504         15.7504
  25572360.5204   30555390.87746  23809383.28046                  25572367.4384
        19.7504         17.7504
  26402063.5444    1437759.84946   1045151.60646                  26402073.7314
        12.7504         12.5004
  23348884.5054    9184715.49847   7160019.30847                  23348889.4274
        26.7504         29.5004
  24675257.3104   27709812.67347  21554379.84346                  24675262.7944
        27.7504         25.5004
 02  8  2 22 12  0.0090000  0  6G 1G22G11G 2G20G25
  24806985.5284    8334818.84647   4812736.53946                  24806991.4234
        23.2504         22.5004
  25452339.4114    1780159.26146   1353586.24446                  25452347.9464
        16.2504         16.0004
  25591615.7704   30656576.56647  23888229.19546                  25591622.4504
        20.0004         17.2504
  26406189.1614    1459439.18646   1062044.68846                  26406198.8804
        12.7504         12.7504
  23357274.2164    9228802.14647   7194372.54047                  23357279.2314
        26.7504         29.2504
  24693204.4424   27804124.41248  21627869.49046                  24693209.8684
        28.0004         25.0004
 02  8  2 22 12 15.0090000  0  6G 1G22G11G 2G20G25
  24813700.4274    8370101.92547   4840229.86646                  24813705.9464
        24.7504         22.5004
  25455456.3334    1796542.96446   1366352.81846                  25455465.1144
        16.0004         15.7504
  25610885.6384   30757842.05946  23967137.31946                  25610892.3174
        19.5004         16.7504
  26410324.3334    1481167.97846   1078976.30446                  26410333.7244
        13.2504         12.5004
  23365687.0054    9273011.58647   7228821.45647                  23365691.9274
        26.7504         29.2504
  24711168.1614   27898524.50947  21701428.00446                  24711173.3884
        27.7504         25.2504
 02  8  2 22 12 30.0090000  0  6G 1G22G11G 2G20G25
  24820423.5834    8405434.59847   4867761.84246                  24820429.1494
        24.5004         23.0004
  25458589.7704    1813004.03446   1379179.69846                  25458598.3294
        16.0004         15.5004
  25630170.2554   30859182.30746  24046103.67946                  25630177.6424
        19.2504         17.2504
  26414467.2004    1502941.74746   1095942.94146                  26414477.2944
        12.7504         12.5004
  23374122.2704    9317339.17747   7263362.44147                  23374127.1574
        26.7504         29.2504
  24729147.3564   27993007.79347  21775051.32346                  24729152.7944
        27.2504         25.0004
 02  8  2 22 12 45.0090000  0  6G 1G22G11G 2G20G25
  24827157.3024    8440820.77947   4895335.51246                  24827163.1264
        24.2504         23.0004
  25461737.1384    1829546.81346   1392070.23746                  25461745.3804
        16.0004         15.5004
  25649469.3024   30960600.75946  24125130.97446                  25649476.4894
        19.5004         17.2504
  26418620.0914    1524764.68246   1112947.92446                  26418629.0134
        13.0004         12.5004
  23382580.9744    9361789.06947   7297998.72447                  23382585.7784
        27.0004         29.2504
  24747143.7864   28087577.87447  21848742.27546                  24747149.3294
        27.0004         25.0004
 02  8  2 22 13  0.0090000  0  6G 1G22G11G 2G20G25
  24833900.0674    8476256.05647   4922947.43546                  24833906.3604
        23.7504         23.0004
  25464899.6064    1846167.33446   1405021.34446                  25464907.4274
        15.7504         15.5004
  25668782.7554   31062092.82246  24204215.63346                  25668790.1304
        18.7504         17.0004
  26422781.3804    1546632.72146   1129988.03046                  26422791.1344
        13.0004         12.7504
  23391061.9664    9406357.05747   7332727.03447                  23391066.8644
        26.7504         29.2504
  24765155.6774   28182230.24148  21922497.34546                  24765161.3604
        28.0004         25.0004
 02  8  2 22 13 15.0090000  0  6G 1G22G11G 2G20G25
  24840653.6144    8511744.78847   4950601.01646                  24840659.9194
        24.0004         23.0004
  25468078.5134    1862870.33446   1418036.72146                  25468086.6264
        16.5004         15.2504
  25688111.1534   31163662.29747  24283360.60246                  25688118.2594
        20.0004         16.7504
  26426952.6774    1568550.51446   1147066.89346                  26426962.3604
        13.5004         12.7504
  23399565.9274    9451047.77047   7367550.96947                  23399570.6264
        26.7504         29.2504
  24783183.7864   28276968.93147  21996319.68546                  24783189.0954
        27.7504         25.0004
 02  8  2 22 13 30.0090000  0  6G 1G22G11G 2G20G25
  24847416.2554    8547281.97447   4978292.34646                  24847422.2434
        24.0004         22.7504
  25471271.8104    1879651.31946   1431112.87246                  25471280.0404
        16.5004         16.0004
  25707453.4744   31265303.97347  24362561.85146                  25707460.0134
        20.5004         16.7504
  26431131.3104    1590513.40946   1164180.93346                  26431140.8764
        13.0004         12.7504
  23408093.0604    9495856.44847   7402466.81947                  23408097.8994
        26.7504         29.2504
  24801227.5674   28371788.54247  22070205.08046                  24801232.9704
        27.5004         24.7504
 02  8  2 22 13 45.0090000  0  6G 1G22G11G 2G20G25
  24854187.9274    8582867.92647   5006021.68346                  24854193.8104
        24.5004         23.0004
  25474479.9974    1896510.98146   1444250.32646                  25474488.6024
        16.7504         16.2504
  25726809.3104   31367017.74947  24441819.29646                  25726816.1814
        21.0004         17.0004
  26435319.5444    1612522.02146   1181330.59746                  26435328.8174
        13.5004         12.7504
  23416642.4354    9540783.54447   7437474.95047                  23416647.2164
        26.7504         29.0004
  24819286.4504   28466689.19747  22144153.62746                  24819291.8064
        27.2504         24.5004
 02  8  2 22 14  0.0100000  0  6G 1G22G11G 2G20G25
  24860970.1824    8618507.64647   5033792.91146                  24860976.3574
        24.2504         23.0004
  25477704.0804    1913453.58546   1457452.40046                  25477712.6624
        17.0004         16.5004
  25746179.8144   31468812.64547  24521139.92646                  25746186.5184
        20.7504         17.2504
  26439516.6354    1634580.83446   1198519.33446                  26439526.6934
        13.5004         13.0004
  23425215.3934    9585835.03347   7472580.00947                  23425220.5374
        26.7504         29.2504
  24837362.4164   28561679.76947  22218172.23746                  24837367.9824
        27.0004         24.2504
 02  8  2 22 14 15.0100000  0  6G 1G22G11G 2G20G25
  24867760.7364    8654195.16847   5061601.39046                  24867766.8534
        24.0004         23.0004
  25480943.5884    1930475.93146   1470716.63446                  25480952.4044
        17.7504         16.7504
  25765563.4004   31570673.59847  24600512.02446                  25765570.5414
        20.0004         17.0004
  26443722.8464    1656685.98346   1215744.21046                  26443733.0334
        13.5004         13.5004
  23433810.7054    9631003.77947   7507776.44347                  23433815.6154
        26.7504         29.0004
  24855452.8144   28656745.98047  22292249.79146                  24855458.1354
        26.5004         24.5004
 02  8  2 22 14 30.0100000  0  6G 1G22G11G 2G20G25
  24874562.1894    8689937.95647   5089452.92946                  24874568.5064
        23.5004         22.7504
  25484199.2444    1947584.79946   1484048.26546                  25484207.8034
        17.7504         16.7504
  25784961.5964   31672612.06347  24679944.53346                  25784968.2994
        20.2504         17.0004
  26447940.1034    1678844.37846   1233010.57646                  26447950.3264
        14.2504         13.7504
  23442429.8304    9676298.20247   7543070.79747                  23442434.7644
        26.7504         29.0004
  24873560.1354   28751898.91347  22366394.91446                  24873565.5254
        27.5004         24.5004
 02  8  2 22 14 45.0100000  0  6G 1G22G11G 2G20G25
  24881373.1434    8725726.47047   5117340.09746                  24881379.2954
        24.5004         23.0004
  25487469.5494    1964770.91346   1497440.09946                  25487477.9674
        18.0004         17.2504
  25804372.5104   31774617.97046  24759429.58146                  25804379.2484
        19.5004         16.7504
  26452165.1664    1701046.73046   1250311.17246                  26452175.0494
        14.0004         13.5004
  23451071.2054    9721708.95147   7578455.79647                  23451076.0214
        26.7504         29.0004
  24891681.9324   28847128.79847  22440600.00046                  24891687.4164
        27.2504         24.5004
 02  8  2 22 15  0.0100000  0  6G 1G22G11G 2G20G25
  24888193.2524    8761567.57447   5145268.24946                  24888199.3344
        24.5004         23.2504
  25490756.1824    1982041.62146   1510897.84246                  25490764.2364
        18.2504         17.2504
  25823798.3854   31876697.85147  24838972.27746                  25823805.2794
        20.2504         17.0004
  26456399.8614    1723300.22746   1267651.64846                  26456409.6854
        14.0004         13.5004
  23459735.9634    9767243.09847   7613936.94747                  23459740.9904
        26.5004         29.0004
  24909819.0024   28942442.38747  22514870.31146                  24909824.8734
        26.5004         24.7504
 02  8  2 22 15 15.0100000  0  6G 1G22G11G 2G20G25
  24895022.4864    8797456.77847   5173233.88446                  24895028.5684
        24.2504         23.5004
  25494057.4474    1999392.87846   1524418.35446                  25494065.6194
        17.5004         17.0004
  25843236.1744   31978846.87747  24918568.85646                  25843243.4324
        20.0004         16.7504
  26460643.8144    1745600.66646   1285028.67046                  26460653.3694
        13.5004         13.5004
  23468423.7134    9812896.35447   7649510.91747                  23468428.7754
        26.5004         29.0004
  24927971.7444   29037834.78447  22589202.03046                  24927977.3694
        27.0004         24.5004
 02  8  2 22 15 30.0100000  0  6G 1G22G11G 2G20G25
  24901862.1974    8833397.64247   5201239.77146                  24901868.3504
        24.7504         23.2504
  25497375.9714    2016828.72346   1538004.77746                  25497384.0374
        18.0004         16.7504
  25862688.4634   32081068.60747  24998222.07946                  25862695.8964
        20.0004         16.7504
  26464896.5724    1767951.99946   1302445.37646                  26464906.5844
        13.0004         13.5004
  23477134.3934    9858672.44047   7685180.59547                  23477139.2444
        26.2504         29.0004
  24946140.0724   29133309.35247  22663597.77746                  24946145.5214
        27.5004         24.5004
 02  8  2 22 15 45.0100000  0  6G 1G22G11G 2G20G25
  24908710.0494    8869386.15247   5229282.78446                  24908716.2484
        23.7504         23.2504
  25500708.7604    2034345.49546   1551654.24846                  25500716.9084
        17.5004         16.5004
  25882153.3144   32183358.28646  25077928.26446                  25882159.6314
        19.7504         16.2504
  26469159.4554    1790350.48746   1319898.82346                  26469169.1154
        14.2504         13.7504
  23485867.9164    9904567.62347   7720943.07747                  23485872.8854
        26.2504         28.7504
  24964322.9394   29228861.76947  22738054.19146                  24964328.6354
        26.5004         24.5004
 02  8  2 22 16  0.0100000  0  6G 1G22G11G 2G20G25
  24915567.5334    8905421.74547   5257362.48946                  24915573.6624
        24.2504         23.7504
  25504057.2054    2051943.09746   1565366.71846                  25504065.2714
        17.5004         16.7504
  25901630.5724   32285715.03746  25157686.71046                  25901637.3574
        18.2504         16.2504
  26473430.1584    1812795.85246   1337388.79246                  26473439.6434
        14.2504         13.7504
  23494624.3534    9950581.55547   7756798.09147                  23494629.3574
        26.7504         28.7504
  24982520.5574   29324491.13547  22812570.55946                  24982526.4164
        26.5004         24.5004
